[{"header": {"dx": 0.06612293990616946, "dy": 0.0552356325346848, "nx": 98, "ny": 59, "la1": 35.046912555036876, "la2": 31.78801023549047, "lo1": -121.43107172385933, "lo2": -114.95102361305473, "refTime": "2026040810", "parameterCategory": 1, "parameterNumber": 2}, "data": [6.94, 6.7, 6.94, 6.94, 6.31, 6.08, 5.7, 5.72, 5.72, 5.72, 4.47, 3.49, 1.16, 0.0, -1.13, -2.48, -3.72, -4.46, -4.54, -5.37, -5.94, -4.92, -4.02, -3.53, -3.07, -2.68, -2.24, -1.79, -1.2, 0.45, 0.0, 0.89, 1.7, 2.4, 3.07, 3.58, 4.02, 3.53, 2.6, 1.34, 1.2, 2.17, 3.13, 4.98, 8.8, 11.44, 13.49, 13.51, 12.52, 12.16, 7.32, 1.49, -0.0, 1.16, 2.0, 2.98, 4.43, 5.46, 6.0, 5.6, 5.44, 3.74, 2.12, 1.2, 1.9, 3.07, 4.4, 6.28, 8.14, 10.25, 10.93, 8.82, 6.21, 4.47, 3.97, 5.64, 8.19, 8.38, 2.17, -2.68, -3.53, -3.53, -3.13, -2.4, -1.86, -1.2, -0.45, 0.0, 1.79, 3.82, 6.94, 7.06, 7.02, 7.02, 7.06, 6.35, 5.72, 5.69, 6.94, 6.94, 6.94, 6.7, 6.29, 6.31, 6.33, 6.08, 6.08, 5.72, 4.83, 3.07, 2.53, 1.9, 0.8, -0.71, -2.51, -4.43, -5.24, -4.73, -6.99, -7.31, -4.47, -3.58, -3.32, -2.8, -2.6, -2.24, -2.12, -1.7, -0.89, 0.0, 0.95, 1.86, 2.5, 3.82, 4.43, 4.47, 3.53, 2.4, 2.12, 3.04, 5.6, 8.32, 10.18, 12.45, 13.46, 12.45, 12.49, 9.27, 2.6, 0.53, 1.16, 1.27, 2.11, 2.88, 4.74, 5.43, 6.07, 6.4, 6.0, 5.34, 3.45, 2.86, 2.53, 3.49, 5.05, 5.86, 7.28, 9.33, 10.75, 9.33, 6.66, 4.02, 3.13, 4.41, 8.67, 8.38, 2.17, -2.68, -3.53, -3.53, -3.13, -2.4, -1.86, -1.2, -0.45, 0.0, 1.79, 3.82, 6.94, 7.06, 7.02, 7.02, 7.06, 6.35, 5.72, 5.69, 6.94, 6.94, 6.94, 6.94, 6.94, 6.7, 6.7, 6.71, 6.34, 5.72, 4.83, 3.84, 2.79, 2.53, 2.15, 1.86, 0.57, -1.8, -4.74, -6.18, -5.72, -7.28, -7.37, -5.94, -3.58, -2.91, -2.5, -2.4, -2.24, -2.4, -1.9, -1.49, -1.34, -0.0, 1.24, 3.2, 4.3, 4.87, 4.87, 4.0, 3.78, 6.28, 9.1, 10.89, 12.02, 12.77, 12.26, 10.75, 7.9, 2.8, 1.2, 1.33, 1.49, 2.11, 2.04, 3.11, 4.36, 5.43, 6.44, 6.64, 6.94, 5.6, 4.46, 4.11, 4.46, 5.09, 6.07, 6.64, 7.03, 8.24, 9.74, 10.1, 8.82, 4.47, 3.51, 3.97, 8.49, 11.98, 3.98, -1.26, -2.68, -1.79, -2.17, -3.07, -3.82, -2.63, -1.34, 0.0, 2.4, 6.0, 8.88, 8.3, 7.64, 6.95, 6.64, 5.72, 5.09, 5.09, 6.94, 6.94, 6.92, 6.94, 6.94, 6.94, 6.94, 6.96, 6.71, 6.08, 5.08, 4.03, 2.88, 2.48, 1.84, 1.88, 2.21, 0.61, -2.48, -5.43, -4.37, -5.37, -7.28, -8.24, -7.06, -4.02, -3.07, -2.17, -1.79, -1.86, -2.53, -3.14, -3.45, -2.54, 0.45, 2.68, 4.02, 6.17, 7.06, 7.68, 8.46, 10.15, 10.98, 10.32, 9.95, 9.48, 8.3, 5.43, 3.13, 2.21, 1.8, 2.07, 1.41, 2.11, 2.29, 3.64, 4.43, 5.43, 6.64, 6.94, 6.94, 5.6, 4.81, 4.01, 5.06, 5.72, 6.44, 6.63, 7.61, 8.82, 10.48, 11.21, 10.02, 4.47, 2.53, 3.16, 6.94, 12.3, 7.56, -0.71, -2.91, -2.4, -2.91, -4.3, -4.87, -3.53, -0.89, 1.26, 3.49, 8.32, 9.92, 8.3, 6.95, 6.64, 5.06, 3.72, 3.72, 4.93, 6.94, 6.94, 6.92, 6.92, 6.92, 6.92, 7.32, 6.94, 6.7, 6.34, 5.46, 4.44, 2.88, 2.0, 1.8, 1.27, 2.0, 2.51, 0.0, -4.43, -7.37, -5.2, -5.6, -7.81, -7.47, -7.81, -3.95, -2.54, -0.95, -0.57, -1.16, -2.88, -5.38, -3.8, 0.0, 3.0, 3.72, 6.95, 8.85, 9.22, 9.39, 9.31, 7.9, 6.64, 6.98, 7.12, 7.15, 6.22, 5.44, 5.05, 3.49, 2.84, 2.07, 1.55, 2.66, 3.72, 4.81, 5.46, 6.7, 7.6, 7.21, 5.05, 3.72, 4.65, 6.01, 7.06, 6.7, 6.08, 6.32, 8.3, 10.48, 12.56, 11.3, 7.71, 3.07, 1.23, 3.79, 8.8, 4.73, -1.9, -4.27, -4.0, -4.11, -5.2, -4.73, -3.07, 0.0, 3.16, 6.64, 9.27, 8.94, 7.69, 6.68, 3.79, 2.5, 2.91, 4.3, 5.86, 6.94, 6.94, 6.92, 6.92, 6.92, 7.32, 7.57, 7.59, 6.96, 6.33, 5.7, 4.44, 2.2, 1.84, 2.07, 1.41, 1.35, 2.73, 1.8, -2.66, -8.93, -8.3, -8.72, -8.4, -7.37, -7.28, -6.52, -2.95, -0.7, 0.0, 0.53, 0.0, -1.23, -2.25, 0.0, 1.44, 2.25, 6.33, 9.49, 8.72, 6.09, 3.99, 3.45, 5.36, 9.36, 10.7, 10.73, 9.83, 8.01, 5.77, 3.82, 3.07, 1.84, 2.07, 2.79, 3.48, 4.46, 4.73, 6.64, 8.82, 7.47, 4.46, 4.01, 5.37, 6.06, 7.67, 6.7, 5.09, 4.81, 7.6, 9.83, 11.18, 10.68, 10.8, 7.98, 3.32, 2.11, 3.43, 2.91, -1.58, -4.37, -4.12, -4.12, -4.66, -3.48, -1.19, 1.4, 5.28, 7.44, 7.52, 6.64, 7.64, 5.09, 0.0, -0.63, 2.5, 5.44, 7.47, 6.29, 6.94, 6.68, 6.92, 7.16, 7.57, 7.57, 7.57, 6.94, 6.31, 5.7, 3.8, 2.07, 2.5, 3.35, 1.88, 1.8, 2.88, 4.56, 0.55, -5.35, -9.4, -9.31, -8.95, -7.43, -6.21, -5.36, -3.18, -3.25, -1.52, 0.0, 1.26, 1.9, 0.63, 0.0, 0.0, 1.5, 5.6, 7.95, 5.49, 1.96, 1.03, 1.96, 6.18, 9.77, 10.52, 11.4, 10.18, 8.05, 8.05, 6.71, 3.07, 2.53, 2.07, 2.79, 3.84, 4.12, 4.84, 6.0, 7.98, 6.94, 4.46, 4.46, 5.43, 5.05, 5.69, 6.94, 5.34, 4.41, 6.66, 8.94, 8.91, 8.84, 10.18, 11.08, 8.91, 3.6, 1.58, 2.68, 3.07, -2.98, -2.72, -2.9, -3.09, -1.52, 0.0, 2.28, 3.91, 5.41, 5.28, 5.39, 5.31, -0.6, -3.58, -0.57, 2.84, 6.32, 7.6, 6.7, 6.94, 6.68, 6.92, 7.16, 7.57, 7.55, 7.57, 6.94, 6.31, 5.04, 3.35, 1.66, 2.53, 4.98, 2.91, 3.07, 4.46, 5.72, 5.43, 2.5, -0.59, -4.5, -7.01, -6.4, -5.16, -4.38, -5.33, -6.7, -5.46, -3.22, 0.0, 0.79, 2.8, 2.83, 1.39, 0.71, 2.31, 5.2, 5.15, 3.0, 2.17, 2.13, 4.34, 6.42, 7.36, 6.96, 8.48, 8.91, 9.16, 3.97, 3.07, 1.84, 2.73, 3.43, 4.11, 5.09, 5.69, 6.94, 7.28, 6.79, 4.93, 3.82, 2.91, 1.9, 3.07, 6.07, 6.26, 4.02, 4.87, 7.12, 8.01, 8.82, 10.49, 10.93, 9.83, 7.12, 4.0, 5.16, 8.91, 5.2, -0.69, -0.71, -0.67, 0.0, 2.02, 3.47, 3.16, 2.97, 3.8, 2.04, -2.23, -4.47, -3.09, 0.0, 3.15, 6.7, 6.7, 6.68, 6.92, 7.16, 6.9, 7.55, 7.31, 7.55, 7.55, 6.92, 6.29, 5.04, 3.49, 1.95, 2.31, 3.9, 3.84, 4.19, 5.09, 5.69, 4.4, 3.58, 3.51, 2.21, -0.63, -3.8, -2.99, -3.2, -7.65, -8.91, -6.71, -2.1, -1.09, 0.0, 2.19, 2.83, 2.23, 1.09, 1.02, 2.06, 4.2, 3.11, 3.21, 4.24, 3.29, 2.1, 1.5, 3.11, 6.32, 7.28, 8.14, 6.99, 2.6, 2.07, 2.98, 4.43, 5.43, 6.08, 7.2, 7.89, 7.71, 7.71, 6.21, 2.68, 0.6, -0.0, 2.21, 6.07, 6.71, 3.13, 3.07, 4.87, 8.02, 10.49, 11.28, 9.93, 7.56, 5.36, 7.45, 9.72, 11.99, 10.7, 1.36, 0.0, 0.71, 1.33, 2.15, 3.31, 2.99, 1.19, -1.16, -3.53, -4.47, -4.3, -2.23, 0.59, 4.11, 6.35, 5.72, 7.16, 6.9, 7.13, 7.29, 7.53, 7.8, 7.8, 7.55, 6.92, 6.29, 5.23, 4.57, 3.91, 2.82, 2.41, 3.21, 4.2, 4.71, 4.44, 3.2, 1.66, 2.3, 3.16, 1.6, -2.07, -4.74, -3.48, -6.64, -8.61, -4.32, 0.0, 0.0, 0.0, 0.0, 0.0, 1.03, 3.91, 2.8, 1.96, 1.84, 2.35, 2.34, 2.11, 1.26, 0.54, 0.71, 0.75, 2.97, 5.28, 5.72, 2.91, 1.9, 2.07, 3.43, 5.09, 6.08, 7.6, 8.4, 8.63, 8.8, 8.36, 6.66, 3.39, -0.0, -0.0, 2.53, 5.86, 6.42, 3.53, 3.07, 4.41, 9.15, 11.28, 11.28, 9.74, 7.57, 5.64, 6.55, 8.84, 11.15, 12.96, 10.28, 0.61, 1.19, 1.23, 1.76, 2.44, 3.16, 1.9, -0.45, -2.49, -3.09, -2.51, -1.23, 0.63, 3.9, 6.01, 5.37, 6.9, 7.13, 6.88, 7.53, 7.53, 7.76, 7.53, 7.55, 6.92, 6.53, 5.64, 5.64, 5.64, 4.54, 2.49, 2.34, 3.32, 3.96, 3.84, 2.84, 1.52, 0.78, 1.45, 1.27, -0.76, -5.15, -5.72, -5.46, -6.2, -3.18, 1.04, 1.69, 0.0, -1.58, -2.25, 0.0, 5.21, 5.15, 2.07, 1.86, 0.54, 0.0, -0.0, -0.0, -0.0, 0.0, 0.0, 0.0, 0.0, -1.24, -0.89, 0.6, 2.21, 3.49, 5.09, 6.7, 8.14, 9.11, 8.91, 8.94, 8.94, 6.26, 1.24, -0.61, 0.61, 3.49, 6.07, 6.64, 5.16, 4.02, 6.79, 9.68, 11.09, 9.93, 9.18, 9.28, 7.06, 5.09, 7.28, 9.74, 11.52, 12.5, 8.91, 1.13, 1.88, 2.91, 3.39, 3.87, 4.02, 3.58, 1.79, -0.6, -1.13, -0.63, 0.61, 3.32, 4.56, 3.55, 6.9, 7.13, 6.88, 7.53, 7.76, 7.76, 7.53, 7.13, 6.67, 6.27, 6.27, 6.27, 6.53, 6.56, 5.72, 4.44, 3.49, 4.02, 3.96, 3.47, 2.17, 1.03, 0.53, 0.87, 0.0, -1.24, -2.21, -2.21, -1.84, -0.81, 0.0, 0.0, -0.6, -1.26, -0.61, 0.0, 1.26, 0.65, 0.45, -0.0, -0.0, -0.0, -0.0, -0.0, -0.63, -2.68, -3.04, -3.13, -3.13, -2.68, -1.49, 0.0, 1.34, 3.07, 4.24, 5.86, 8.19, 9.26, 8.49, 7.92, 8.19, 3.97, -0.0, -1.88, 0.65, 3.14, 6.08, 7.28, 6.79, 6.26, 7.33, 9.68, 9.68, 8.4, 7.71, 9.54, 8.4, 6.07, 7.59, 9.19, 8.93, 8.91, 9.81, 3.39, 2.6, 3.07, 3.98, 4.43, 4.47, 4.92, 4.47, 2.91, 0.54, 0.0, 1.35, 2.66, 3.38, 2.66, 6.9, 7.13, 6.88, 7.53, 7.53, 7.53, 7.53, 7.13, 6.9, 6.5, 6.92, 6.92, 6.92, 7.59, 7.33, 7.27, 6.32, 5.08, 4.57, 4.54, 3.78, 2.16, 1.57, 1.6, 1.26, 0.0, -1.49, -2.21, -2.44, -3.09, -3.53, -2.68, -1.84, -0.54, 0.89, 0.89, 0.0, -0.0, -0.6, -0.6, -0.89, -0.63, 0.0, 1.26, 0.0, -2.53, -3.16, -3.22, -2.86, -2.21, -1.8, -1.11, 0.0, 1.13, 2.86, 4.15, 4.85, 7.52, 6.67, 5.32, 4.52, 1.86, -1.86, -2.4, -0.0, 1.86, 3.14, 4.46, 4.09, 4.0, 3.98, 3.98, 4.73, 5.64, 7.28, 9.83, 9.08, 7.67, 7.95, 7.61, 6.01, 5.72, 8.93, 10.01, 4.92, 4.43, 5.64, 4.52, 4.43, 4.92, 5.36, 3.98, 3.07, 2.21, 2.48, 3.15, 2.23, 1.8, 6.9, 7.13, 6.88, 7.53, 7.53, 7.53, 7.29, 7.13, 6.9, 6.9, 6.9, 7.31, 7.57, 7.57, 8.23, 8.85, 8.15, 7.17, 6.06, 5.72, 5.08, 4.47, 3.22, 2.6, 1.6, 0.0, -2.63, -4.11, -5.08, -5.81, -4.8, -3.53, -2.12, -0.6, 0.6, 0.57, 0.6, -0.0, 0.0, 0.45, 0.0, -0.59, 0.0, 2.17, 0.0, -0.96, -2.11, -3.17, -2.99, -2.12, -2.12, 0.0, 0.0, 1.07, 2.13, 2.66, 1.49, 3.51, 4.92, 3.53, 0.6, -0.71, -1.86, -1.58, -0.57, 0.0, 0.89, 1.58, 1.49, 1.8, 0.66, -0.0, 0.6, 2.24, 4.24, 7.89, 7.6, 7.6, 7.67, 6.44, 4.11, 5.59, 8.87, 10.41, 8.06, 7.71, 6.79, 3.6, 2.91, 4.02, 4.92, 4.92, 4.43, 3.82, 4.0, 3.6, 2.5, 1.0, 6.9, 7.13, 7.55, 7.53, 7.53, 7.53, 7.55, 7.13, 6.9, 7.13, 7.55, 7.55, 7.55, 7.95, 8.59, 9.21, 9.46, 8.78, 7.81, 7.23, 6.95, 6.92, 5.88, 4.68, 2.61, 0.0, -2.17, -3.13, -3.87, -4.34, -4.34, -3.98, -2.68, -1.34, 0.45, 0.45, 0.45, 0.0, 0.45, 0.0, 0.0, 0.0, 0.0, 0.0, 0.0, 0.0, 0.0, 0.0, -1.84, -3.17, -2.17, 0.0, 2.13, 0.94, 0.0, 0.0, 0.0, 1.8, 3.87, 1.2, -1.34, -1.88, -1.49, -1.7, -1.7, -1.49, 0.0, 0.89, 1.2, 0.61, -0.0, -0.0, -0.0, 0.57, 1.79, 3.32, 4.0, 4.66, 5.69, 5.05, 3.16, 4.43, 6.98, 8.49, 7.17, 7.69, 5.69, 3.82, 2.68, 3.07, 4.47, 5.81, 5.32, 4.43, 4.43, 3.32, 2.15, 2.15, 6.9, 7.55, 7.55, 7.29, 7.53, 7.29, 7.55, 7.13, 7.13, 7.13, 7.55, 7.8, 8.2, 8.2, 8.58, 9.21, 9.8, 9.44, 9.08, 8.11, 8.15, 8.38, 8.29, 8.0, 5.65, 2.0, 0.0, 0.45, -0.45, -1.34, -1.73, -2.63, -2.17, -0.95, -0.0, 0.0, -0.63, -0.89, -0.89, -0.63, 0.0, 0.0, 0.0, -0.63, -0.63, -0.0, -0.0, 0.45, 0.0, 0.0, 0.0, 0.0, 0.61, 0.0, 0.0, 0.0, 0.0, 1.33, 2.12, 0.45, 0.45, 0.0, 0.0, -0.88, -1.84, -1.98, -0.59, 0.0, -0.0, -0.61, -1.8, -0.59, 0.53, 1.24, 0.63, 0.89, 1.79, 2.68, 2.4, 2.4, 2.0, 2.8, 4.4, 6.94, 7.21, 3.32, 3.45, 2.68, 2.91, 3.32, 4.92, 4.77, 3.82, 4.88, 6.58, 4.52, 3.35, 3.35, 7.31, 7.55, 7.55, 7.55, 7.55, 7.55, 7.55, 7.55, 7.55, 7.55, 7.53, 7.8, 8.2, 8.58, 8.85, 9.21, 9.82, 9.8, 9.72, 9.08, 9.02, 9.02, 9.5, 9.63, 8.8, 6.6, 4.66, 4.02, 3.58, 2.68, 1.79, -0.0, -0.6, -0.0, -0.54, -0.57, -1.34, -0.89, -0.45, -0.63, -0.6, -1.26, -1.34, -0.89, 0.0, -0.0, -0.0, -0.0, 1.26, 0.63, 0.89, 0.45, 0.45, -0.0, -0.0, 0.45, 1.2, 0.89, 0.45, 0.0, 0.45, 0.89, 0.89, 0.89, 0.6, 0.0, 0.0, 0.0, 0.45, -1.24, -1.86, -1.34, 0.0, 0.45, 0.0, -0.0, -0.0, 0.71, 0.63, 0.45, 0.89, 2.24, 3.39, 5.44, 7.28, 3.97, 1.79, 2.4, 3.58, 5.36, 7.48, 4.77, 3.6, 4.52, 7.47, 5.6, 3.43, 3.43, 7.31, 7.55, 7.55, 7.55, 7.55, 7.55, 7.55, 7.55, 7.55, 7.55, 7.8, 8.2, 8.46, 8.85, 8.85, 9.5, 9.82, 10.4, 10.36, 9.66, 9.59, 9.86, 9.86, 9.71, 9.57, 9.32, 8.92, 8.49, 7.6, 6.26, 4.44, 2.24, 0.63, -0.0, -0.99, -1.2, -1.26, -0.89, -0.95, -0.6, -0.95, -1.6, -1.86, -1.24, -0.63, 0.45, 0.45, 0.89, -0.0, -0.0, 1.4, 1.4, -0.0, -0.0, 0.89, 0.45, 0.45, 0.95, 1.34, 0.89, 1.34, 1.26, 0.95, -0.0, -0.0, -0.0, 0.45, 0.85, 0.0, -0.89, -1.2, -1.24, -0.57, -0.99, -1.7, -1.24, -0.0, 1.88, 1.9, 1.26, 1.2, 1.7, 2.63, 5.02, 4.0, 3.45, 3.72, 3.58, 4.73, 6.54, 7.28, 5.77, 4.11, 4.73, 6.64, 5.05, 3.78, 3.78, 7.31, 7.55, 7.55, 7.55, 7.55, 7.55, 7.55, 7.8, 7.8, 7.8, 7.8, 8.2, 8.46, 8.85, 8.58, 9.31, 9.5, 10.43, 10.06, 9.86, 10.68, 11.22, 9.76, 8.63, 7.89, 9.6, 7.87, 7.89, 6.98, 6.04, 3.87, 1.79, 0.45, -0.57, -1.61, -2.23, -1.9, -1.79, -1.86, -1.58, -1.2, -0.45, -0.89, -1.34, -0.89, -0.45, -0.0, 0.45, -0.0, -0.0, -0.0, 1.58, -0.0, -0.0, 1.34, 1.34, 1.34, 1.34, 1.34, 0.89, 1.34, 1.26, -0.0, -0.0, -0.54, -0.57, 0.45, 1.88, 2.51, 2.23, 1.86, 2.4, 3.07, 1.49, -0.63, -0.89, 0.45, 1.7, 2.6, 2.17, 1.7, 1.79, 2.49, 3.35, 3.78, 4.36, 5.86, 7.25, 8.68, 6.98, 5.69, 5.86, 6.13, 5.01, 5.09, 5.05, 4.09, 4.09, 7.57, 7.55, 7.55, 7.55, 7.55, 7.55, 7.55, 8.2, 8.2, 8.2, 7.8, 8.2, 8.46, 8.85, 8.85, 8.86, 9.5, 9.21, 7.73, 7.64, 10.48, 12.03, 10.96, 8.65, 7.64, 7.68, 7.06, 6.7, 6.56, 4.17, 1.7, 0.45, -0.45, -1.6, -2.15, -2.68, -3.07, -3.07, -2.68, -2.6, -1.79, -0.63, -0.6, -0.6, -1.2, -0.89, 0.45, -0.0, -0.0, -0.0, -0.0, -0.0, -0.0, -0.0, -0.0, 0.63, 2.24, 1.34, 0.89, 1.34, 0.89, -0.0, -1.26, -1.58, -0.8, -0.6, 0.0, 1.86, 3.32, 3.58, 4.3, 8.36, 11.52, 10.73, 5.34, 2.53, 1.61, 1.88, 2.12, 1.34, 1.79, 1.79, 2.24, 2.17, 2.8, 2.84, 3.16, 3.14, 6.95, 4.74, 3.72, 5.72, 7.07, 4.74, 4.07, 5.06, 5.06, 5.06, 7.57, 7.55, 7.55, 7.31, 7.31, 7.55, 7.95, 8.2, 8.2, 8.2, 8.2, 8.2, 8.2, 8.85, 9.22, 9.49, 10.13, 8.59, 7.33, 7.24, 9.17, 10.65, 10.88, 9.72, 8.85, 8.22, 6.95, 6.01, 4.43, 1.58, 0.0, -0.89, -0.89, -1.34, -2.17, -2.63, -3.07, -3.13, -2.68, -2.24, -1.79, -1.6, -1.26, -0.95, -1.2, -0.89, -0.89, -0.95, -0.0, -0.0, -0.0, -0.0, -0.0, -0.0, -0.0, 0.89, 1.7, 1.7, 1.79, 0.45, 0.45, -1.0, -1.9, -1.58, -0.89, -0.89, -0.89, 0.0, 1.86, 2.51, 5.06, 8.3, 11.03, 11.15, 7.98, 4.46, 2.72, 1.76, 1.33, 0.57, 1.2, 1.79, 2.12, 0.99, -0.0, -0.45, -0.45, 0.45, 3.09, 3.6, 3.43, 5.94, 7.33, 4.74, 3.32, 3.76, 4.07, 4.07, 7.57, 7.57, 7.57, 7.57, 7.57, 7.55, 7.95, 8.2, 8.58, 8.58, 8.2, 8.2, 8.2, 8.85, 9.22, 9.84, 10.13, 9.21, 8.59, 8.59, 9.21, 9.48, 9.77, 9.17, 9.17, 9.13, 8.45, 6.28, 2.58, 0.0, -0.63, -0.89, -0.89, -1.34, -1.79, -2.24, -2.24, -2.24, -2.24, -2.24, -2.12, -1.86, -1.86, -1.86, -1.2, -0.89, -0.89, -1.26, -1.26, -0.0, -0.0, -0.0, -0.0, -0.0, -0.0, 1.79, 0.63, -0.0, 0.0, 0.0, -0.63, -1.24, -0.99, -1.2, -0.89, -0.89, -0.89, -0.89, -0.0, -0.0, 2.15, 4.19, 4.27, 2.91, 1.52, 2.63, 3.53, 2.6, 1.19, 0.0, 0.0, 0.89, 0.95, -0.0, -0.57, -1.26, -1.34, 0.0, 3.14, 6.42, 7.59, 6.92, 7.61, 5.38, 2.23, 2.23, 3.16, 3.16, 7.57, 7.57, 7.57, 7.57, 7.57, 7.83, 7.95, 8.2, 8.85, 8.85, 8.58, 8.58, 8.58, 8.85, 9.22, 10.13, 9.84, 9.5, 9.5, 10.13, 10.72, 10.36, 9.46, 8.85, 8.56, 9.13, 9.02, 6.87, 3.43, 0.63, 0.0, 0.45, -0.45, -0.89, -1.34, -1.79, -2.24, -2.24, -2.24, -2.24, -2.17, -2.4, -2.15, -2.15, -1.49, -1.7, -1.26, -1.58, -1.58, -1.26, -0.0, -0.0, -0.0, -0.0, -0.0, -0.0, -0.0, -1.2, 0.45, 0.0, -0.0, -0.6, -0.0, -0.0, -0.45, -0.0, 0.0, 0.45, 0.45, 0.0, 0.0, 0.45, -0.0, -0.0, 0.0, 0.71, 2.9, 3.33, 1.88, 0.57, 0.0, 0.0, 0.0, 0.0, 0.45, -0.45, -0.6, 0.59, 2.66, 6.68, 8.59, 7.55, 7.59, 4.12, 1.86, 2.4, 3.35, 3.35, 7.57, 7.57, 7.57, 7.57, 7.57, 7.83, 8.22, 8.2, 8.85, 8.85, 8.85, 8.85, 8.85, 8.85, 9.5, 9.5, 10.13, 9.21, 9.21, 9.82, 10.99, 11.23, 10.59, 9.42, 8.82, 8.53, 8.5, 7.17, 4.71, 2.68, 1.27, 0.89, 0.45, 0.0, -0.32, -1.2, -1.7, -1.7, -1.79, -2.24, -2.17, -2.4, -2.5, -2.5, -2.4, -2.91, -2.68, -2.0, -1.58, -1.58, -1.26, -0.0, -0.0, -0.0, -0.0, -0.0, -0.0, -0.89, -0.89, 0.0, -0.0, 0.0, 0.0, 0.0, 0.45, 0.45, 0.0, 0.45, 0.45, 0.0, 0.0, 0.0, 0.89, 0.45, 0.0, 0.0, 2.16, 3.22, 2.99, 1.33, 0.0, 0.0, 0.0, 0.0, 0.0, 0.0, 0.0, 0.63, 2.11, 4.07, 7.02, 4.71, 3.38, 2.15, 1.7, 3.07, 3.88, 3.88, 7.57, 7.57, 7.57, 7.57, 7.57, 7.57, 8.22, 8.2, 8.58, 9.22, 9.22, 9.22, 8.85, 8.85, 9.5, 9.5, 9.82, 9.5, 9.21, 9.82, 10.99, 11.52, 11.72, 11.07, 9.59, 8.78, 7.86, 6.92, 5.65, 4.65, 3.6, 2.49, 1.7, 1.2, 0.0, 0.0, -0.6, -1.6, -1.7, -1.79, -2.24, -2.6, -2.91, -2.91, -2.91, -3.53, -3.58, -3.07, -2.91, -2.8, -2.15, -1.26, -1.26, -0.0, -0.0, -0.0, -0.0, -0.32, -0.89, 0.45, 0.45, 0.45, 0.0, 0.0, 0.45, 0.0, 0.0, 0.0, -0.45, 0.0, 1.0, 2.21, 3.51, 4.02, 3.13, 2.68, 2.0, 2.21, 3.16, 2.53, 1.88, 0.54, 0.0, 0.0, -0.71, 0.0, 0.0, 0.57, 1.23, 2.48, 2.5, 2.79, 2.5, 2.6, 2.91, 4.0, 4.52, 4.52, 7.57, 7.57, 7.57, 7.96, 7.96, 7.96, 8.22, 8.58, 8.58, 9.22, 9.22, 9.22, 9.22, 9.22, 9.22, 9.5, 9.5, 9.5, 9.82, 9.82, 10.72, 10.99, 11.8, 11.72, 10.7, 9.3, 7.55, 6.01, 5.65, 5.01, 5.21, 4.4, 3.6, 2.91, 1.86, 0.8, 0.0, -0.6, -1.26, -1.7, -1.79, -2.17, -2.49, -2.49, -2.63, -3.13, -3.13, -3.53, -3.39, -2.68, -2.68, -2.21, -1.9, -1.2, -1.4, -1.4, -1.2, -0.0, 0.0, 0.0, 0.0, 0.45, 0.45, 0.0, 0.0, 0.0, 0.0, -0.45, -1.34, 0.0, 0.71, 2.53, 4.11, 5.77, 6.22, 6.36, 4.6, 3.98, 3.14, 3.14, 3.14, 2.51, 0.61, -0.71, -1.26, -0.57, 0.0, 0.0, 0.0, 0.0, 0.0, 2.6, 3.32, 3.6, 4.0, 4.0, 4.52, 4.52, 7.57, 7.57, 7.57, 7.96, 7.96, 7.96, 8.22, 8.22, 8.58, 8.85, 9.22, 9.49, 9.49, 9.49, 9.49, 9.5, 9.5, 9.5, 10.13, 10.43, 10.43, 10.99, 11.52, 11.44, 11.16, 9.94, 7.81, 6.28, 5.65, 5.32, 5.59, 5.93, 5.86, 5.21, 4.55, 3.43, 2.53, 1.61, 0.54, 0.0, -1.2, -1.34, -1.79, -2.17, -2.24, -2.68, -3.13, -3.09, -2.91, -2.68, -3.07, -2.79, -2.23, -2.84, -1.9, -1.24, -1.4, -0.0, -0.0, 0.45, 0.0, 0.0, 0.45, 0.89, 0.45, 0.0, 0.45, -0.89, -1.2, 0.0, 0.65, 1.84, 3.16, 4.52, 4.92, 5.6, 4.66, 3.13, 1.88, 2.51, 2.79, 3.15, 1.6, -0.6, -1.2, -0.57, -0.61, -0.53, -1.2, -1.61, -1.0, 1.24, 3.07, 3.72, 3.78, 4.37, 4.37, 4.37, 7.57, 7.57, 7.96, 7.96, 7.96, 7.96, 8.22, 8.22, 8.86, 8.85, 9.22, 9.49, 9.84, 9.84, 9.84, 10.13, 9.5, 9.84, 10.13, 10.45, 11.03, 10.99, 11.28, 11.52, 11.52, 10.51, 8.73, 7.51, 6.28, 5.65, 5.65, 5.93, 5.93, 5.59, 4.94, 4.29, 3.43, 2.51, 1.61, 0.54, 0.0, -0.89, -1.34, -1.79, -1.79, -1.7, -2.17, -2.68, -3.07, -2.91, -2.5, -2.53, -2.23, -2.51, -2.84, -1.58, -1.2, -0.0, -0.0, 0.0, -0.63, -1.2, 0.0, 0.45, 0.45, 0.45, 0.0, 0.0, -0.63, 0.0, 0.54, 1.84, 2.48, 2.48, 3.07, 3.58, 2.63, 0.63, 0.57, 2.07, 2.79, 3.22, 1.6, -0.45, -1.2, -0.95, -1.84, -2.53, -1.88, -1.2, -0.53, 0.54, 2.79, 3.16, 2.86, 3.79, 4.75, 4.75, 7.59, 7.59, 7.96, 7.96, 7.96, 7.96, 8.22, 8.22, 8.86, 8.58, 9.22, 9.49, 9.84, 9.84, 10.13, 9.84, 9.84, 9.84, 10.13, 10.76, 11.03, 11.33, 10.99, 11.28, 11.23, 10.3, 9.37, 7.55, 6.92, 6.28, 5.88, 6.15, 6.15, 6.15, 5.59, 5.29, 4.11, 3.48, 2.23, 1.61, 0.54, 0.0, -1.34, -1.34, -1.34, -1.79, -1.7, -1.79, -2.24, -2.8, -2.5, -2.21, -2.23, -2.23, -2.23, -2.23, -0.8, -0.0, -0.0, 0.0, -1.34, -1.79, -0.89, 0.0, 0.0, -0.0, -0.0, 0.0, -0.89, -1.26, 0.0, 3.07, 4.09, 3.38, 3.0, 2.48, 1.58, 0.0, 0.0, 1.88, 3.16, 3.2, 1.61, -0.63, -1.0, -1.26, -1.58, -1.61, -1.16, 0.0, 0.0, 0.54, 1.9, 2.23, 2.23, 2.86, 3.79, 3.79, 7.59, 7.59, 8.23, 8.23, 7.96, 7.96, 8.22, 8.59, 8.86, 8.86, 8.58, 9.22, 9.84, 10.13, 10.47, 10.47, 9.84, 9.84, 10.13, 10.45, 11.06, 11.03, 11.03, 10.99, 11.28, 10.3, 9.08, 7.55, 6.92, 6.87, 6.79, 6.7, 6.51, 6.23, 6.23, 5.65, 5.01, 4.11, 3.15, 2.23, 1.16, 0.0, 0.0, -1.2, -2.4, -1.7, -0.63, -1.2, -1.79, -1.86, -1.9, -1.61, -1.88, -1.88, -1.88, -1.61, -1.84, -1.6, -1.0, -1.86, -2.68, -1.79, -0.89, -1.34, -0.45, -0.0, -0.4, 0.45, -0.89, -0.95, 0.0, 2.53, 4.73, 7.06, 6.64, 5.13, 2.86, 1.2, 0.6, 1.24, 2.51, 3.79, 1.6, -0.89, -1.98, -1.84, -1.49, -1.6, -0.71, -0.65, -0.65, 0.0, 0.99, 2.5, 1.61, 2.51, 3.16, 3.16, 7.59, 7.59, 7.96, 8.23, 8.23, 7.96, 8.22, 8.59, 8.86, 8.86, 8.58, 8.58, 9.49, 10.13, 10.47, 10.47, 10.13, 9.84, 9.84, 10.45, 10.45, 11.03, 11.03, 11.03, 10.99, 10.36, 8.82, 7.55, 6.92, 7.44, 7.44, 7.35, 7.35, 6.79, 6.57, 5.98, 5.06, 4.74, 3.79, 2.86, 1.98, 1.0, 0.0, 0.0, -1.86, -1.86, -0.99, -1.26, -1.34, -1.26, -1.24, -1.2, -1.2, -1.88, -1.4, -1.16, -1.16, -1.6, -2.48, -2.5, -2.68, -1.79, -1.34, -0.89, -0.0, -0.0, -0.63, 0.45, 0.63, 1.58, 1.13, 1.27, 3.14, 7.12, 9.72, 9.27, 7.68, 3.78, 2.53, 1.88, 2.51, 2.23, 0.53, -1.34, -2.44, -2.84, -3.35, -2.91, -2.68, -2.24, -2.17, -1.26, 0.0, 1.2, 2.15, 1.61, 2.21, 2.21, 7.59, 7.59, 7.96, 8.23, 8.23, 7.96, 8.59, 8.59, 8.86, 8.86, 8.86, 8.58, 9.22, 9.84, 10.47, 10.47, 10.76, 10.13, 9.84, 10.43, 10.43, 11.03, 11.36, 11.36, 11.03, 10.4, 8.85, 7.59, 6.68, 7.44, 7.73, 8.08, 8.0, 7.64, 6.87, 6.28, 5.37, 5.06, 4.43, 3.49, 2.86, 1.84, 1.2, 0.6, 0.0, -1.24, -1.61, -1.26, -0.89, -0.6, -0.57, -0.71, -0.54, -0.54, -0.54, -1.2, -1.2, -1.16, -2.23, -3.14, -2.24, -1.79, -0.89, 0.45, -0.0, -0.0, -0.0, 0.0, 1.49, 2.86, 1.84, 0.0, 0.76, 4.24, 9.39, 9.72, 7.6, 3.78, 3.14, 3.14, 2.21, 0.71, 0.0, -0.89, -1.7, -2.4, -3.2, -3.7, -3.97, -3.53, -3.13, -2.68, -1.7, 0.0, 2.12, 2.0, 2.4, 2.4, 7.59, 7.59, 7.96, 8.23, 8.23, 8.23, 8.59, 8.59, 8.86, 8.86, 8.86, 8.86, 8.85, 9.22, 10.13, 10.47, 10.76, 10.76, 10.76, 10.43, 10.72, 10.43, 11.03, 11.03, 11.03, 10.12, 8.56, 7.32, 7.27, 7.64, 7.81, 8.15, 8.15, 8.08, 8.0, 6.87, 5.69, 5.08, 4.75, 4.12, 3.49, 2.86, 2.23, 1.49, 0.6, 0.0, 0.0, 0.0, 0.0, -0.0, -0.0, -0.0, -0.0, -0.0, -0.0, -0.0, -0.0, -0.54, -1.2, -1.9, -2.17, -0.45, 0.45, -0.0, -0.0, -0.53, -0.65, -0.0, 0.95, 1.86, 1.26, 0.0, 0.0, 2.86, 7.28, 8.36, 4.3, 1.9, 2.17, 3.54, 4.02, 2.68, 1.79, 1.34, 0.63, 0.0, -1.34, -2.24, -2.63, -3.07, -2.63, -2.24, -1.79, -0.32, 0.89, 2.24, 2.63, 2.63, 7.59, 7.59, 7.59, 7.96, 8.23, 8.23, 8.87, 8.59, 8.59, 8.86, 8.86, 8.86, 8.86, 9.22, 9.84, 10.47, 10.76, 10.45, 10.45, 10.72, 10.72, 10.72, 10.72, 11.03, 11.03, 10.12, 8.24, 7.33, 8.24, 7.9, 7.86, 7.81, 8.15, 8.15, 8.08, 7.44, 6.28, 5.08, 4.75, 4.45, 4.12, 3.49, 2.86, 2.53, 1.9, 1.26, 0.95, 0.63, 0.89, 0.63, 0.6, -0.0, -0.0, -0.0, -0.0, -0.0, -0.0, -0.0, -0.0, -0.0, -0.63, 0.45, -0.0, -0.0, -0.57, -1.2, -1.2, -0.99, -0.45, 0.0, -0.63, 0.0, 0.65, 3.64, 7.68, 7.47, 4.43, 3.07, 3.2, 4.52, 5.67, 4.92, 4.02, 3.53, 2.91, 2.15, 0.99, 0.0, -0.45, -1.34, -1.7, -1.7, -1.34, -0.63, 0.0, 2.24, 2.68, 2.68, 7.33, 7.33, 7.59, 7.96, 8.23, 8.59, 8.87, 8.87, 8.59, 8.86, 8.86, 8.86, 8.86, 9.22, 9.22, 9.84, 9.84, 10.13, 10.43, 10.72, 10.99, 10.94, 10.69, 10.99, 10.99, 9.8, 8.24, 7.33, 7.95, 8.5, 8.19, 8.15, 8.15, 8.15, 7.81, 7.73, 7.21, 5.69, 5.08, 4.75, 4.45, 4.12, 3.79, 3.43, 2.79, 2.5, 1.86, 1.7, 1.34, 1.34, 1.2, 0.8, 0.57, 0.57, 0.57, -0.0, -0.0, -0.0, 0.71, 0.57, -0.0, -0.0, -0.0, -0.0, -0.0, -1.26, -1.26, -1.26, -0.89, -1.2, -1.26, 0.0, 2.21, 6.7, 8.32, 8.4, 6.71, 7.03, 7.67, 8.4, 7.57, 5.81, 4.3, 3.82, 3.39, 3.2, 2.68, 2.4, 2.12, 0.89, 0.45, 0.45, 0.0, 0.0, 0.0, 0.95, 2.24, 2.24, 7.33, 7.33, 7.59, 7.96, 7.96, 8.59, 8.59, 8.87, 8.59, 8.86, 8.86, 8.86, 8.86, 9.5, 9.22, 9.22, 9.82, 9.82, 10.43, 10.72, 10.99, 11.28, 10.94, 10.69, 10.69, 9.77, 8.24, 7.33, 7.61, 8.22, 8.19, 8.73, 8.38, 8.15, 7.81, 8.08, 7.51, 6.87, 5.69, 5.06, 4.45, 4.43, 4.37, 4.07, 3.64, 3.35, 2.91, 2.4, 2.17, 1.79, 1.7, 1.26, 1.26, 0.99, 0.57, 0.57, 0.57, 0.71, 0.71, 0.57, 0.57, -0.57, -1.26, -0.95, -0.0, 0.89, -0.6, -0.57, -0.95, -0.89, -0.6, 0.0, 2.23, 6.55, 9.72, 8.36, 7.6, 9.11, 10.49, 10.71, 9.39, 5.33, 3.39, 2.0, 2.4, 3.07, 3.09, 3.09, 3.07, 2.68, 2.24, 1.34, 0.89, 0.63, 0.95, 0.95, 1.7, 1.7, 7.6, 7.6, 7.33, 7.96, 7.96, 8.59, 8.59, 8.87, 8.87, 8.93, 8.86, 8.86, 9.21, 9.5, 9.5, 9.22, 9.5, 9.82, 10.43, 11.03, 11.33, 11.33, 11.28, 10.94, 10.36, 9.48, 7.95, 7.61, 7.32, 7.6, 7.9, 8.45, 8.73, 8.73, 8.38, 8.08, 7.51, 7.44, 6.28, 5.65, 5.06, 4.74, 4.71, 2.86, 4.4, 4.4, 4.11, 3.39, 3.07, 2.68, 2.24, 2.12, 1.86, 1.58, 1.24, 1.24, 0.71, 0.71, 1.24, 1.24, 0.57, -0.0, -0.0, -0.63, -0.0, -0.0, -0.0, -0.65, -1.24, -0.63, -0.63, -0.95, 0.89, 4.41, 10.28, 8.82, 6.36, 8.4, 10.75, 10.84, 9.15, 4.88, 3.07, 1.2, 1.34, 2.68, 3.58, 4.02, 4.02, 4.02, 3.58, 3.07, 2.17, 1.7, 1.7, 1.49, 1.86, 1.49, 7.6, 7.6, 7.6, 8.24, 7.96, 8.59, 8.59, 8.87, 9.21, 9.21, 9.21, 9.21, 9.21, 9.21, 9.5, 9.5, 9.5, 10.13, 10.75, 11.36, 11.63, 11.92, 11.58, 11.52, 11.23, 10.06, 8.53, 7.61, 7.32, 7.6, 7.9, 8.45, 8.73, 8.94, 8.73, 7.81, 7.73, 7.44, 6.87, 6.23, 5.93, 5.35, 4.71, 2.86, 4.8, 5.51, 4.9, 4.52, 3.82, 3.07, 2.68, 2.17, 1.86, 1.86, 1.26, 1.26, 0.99, 0.71, 1.24, 1.24, 0.99, 0.57, -0.0, -0.0, 0.45, -0.0, -0.0, -0.54, -0.57, -0.0, -0.45, -1.34, 0.0, 4.02, 10.28, 9.39, 4.93, 6.68, 9.82, 10.35, 8.25, 4.77, 4.02, 3.07, 2.49, 3.53, 3.98, 4.43, 4.88, 4.47, 4.47, 3.98, 3.07, 2.4, 2.4, 2.15, 2.5, 1.86, 7.33, 7.33, 7.6, 7.96, 8.24, 8.59, 8.59, 8.87, 9.21, 9.21, 9.21, 9.5, 9.21, 9.21, 9.5, 9.5, 9.21, 9.21, 10.45, 11.03, 11.36, 11.63, 11.92, 11.58, 11.52, 10.36, 9.46, 7.93, 7.6, 7.3, 7.6, 8.19, 8.73, 8.94, 8.73, 8.08, 7.51, 7.44, 6.87, 6.79, 6.51, 5.59, 5.29, 4.65, 3.45, 5.81, 5.6, 4.55, 3.6, 3.07, 2.68, 2.24, 2.12, 1.7, 1.26, 1.26, 1.26, 1.24, 1.24, 1.24, 1.24, 0.57, 0.57, -0.0, 0.89, -0.0, -0.6, -0.6, -0.6, -0.0, -0.0, -0.63, 0.0, 2.86, 6.71, 9.15, 7.89, 5.2, 7.67, 8.18, 5.2, 3.98, 3.58, 3.87, 4.3, 4.3, 5.32, 5.32, 5.36, 5.36, 4.92, 4.47, 3.39, 2.4, 1.9, 2.5, 2.53, 2.5, 7.33, 7.33, 7.6, 7.96, 8.24, 8.58, 8.59, 8.59, 9.21, 9.21, 9.21, 9.5, 9.21, 9.21, 9.21, 9.5, 9.21, 9.21, 10.45, 11.03, 11.03, 11.03, 11.92, 11.92, 11.58, 11.28, 9.77, 8.53, 8.22, 7.9, 8.19, 8.19, 8.45, 8.94, 8.73, 8.65, 7.73, 7.17, 7.44, 7.35, 7.07, 6.7, 6.41, 5.49, 5.29, 5.05, 5.6, 4.27, 3.2, 2.63, 2.24, 2.24, 1.79, 1.7, 1.7, 1.26, 1.26, 1.24, 1.24, 1.24, 1.24, 0.57, -0.0, -0.0, -0.0, -0.0, -0.0, -0.0, -0.0, -0.0, -0.0, 0.0, 0.0, 1.4, 2.8, 4.85, 7.76, 5.78, 4.88, 3.6, 2.6, 2.63, 4.11, 5.94, 6.58, 6.23, 5.81, 5.81, 6.26, 6.26, 5.81, 4.92, 3.98, 2.8, 2.21, 1.88, 2.53, 2.53, 7.33, 7.33, 7.33, 7.6, 7.96, 8.58, 8.87, 8.59, 9.21, 9.21, 9.21, 9.5, 9.5, 9.21, 9.21, 9.21, 9.21, 9.21, 9.82, 10.75, 11.03, 11.33, 11.58, 11.58, 11.58, 10.99, 10.09, 9.46, 8.53, 8.22, 8.19, 8.45, 8.78, 9.3, 8.94, 8.65, 8.08, 7.51, 7.44, 7.44, 7.35, 7.23, 6.95, 6.56, 6.8, 6.8, 5.81, 4.6, 3.39, 3.07, 2.68, 2.24, 1.79, 1.79, 1.7, 1.7, 1.86, 1.58, 1.24, 1.24, 1.24, 0.71, 0.57, -0.0, -0.0, -0.0, -0.0, -0.0, -0.0, -0.0, -0.0, -0.63, 0.0, 0.0, 1.4, 3.45, 4.88, 5.36, 4.47, 3.82, 3.6, 4.66, 7.73, 8.71, 8.02, 7.15, 5.78, 5.78, 6.22, 6.66, 6.22, 5.78, 4.77, 3.6, 2.53, 2.53, 2.53, 2.53, 7.61, 7.61, 7.33, 7.6, 7.96, 8.24, 8.87, 8.87, 9.5, 9.21, 9.21, 9.21, 9.5, 9.5, 9.21, 9.21, 9.21, 9.19, 9.5, 10.75, 11.03, 11.33, 11.33, 11.58, 11.52, 10.94, 10.09, 9.46, 9.13, 8.82, 8.5, 8.78, 9.02, 9.3, 9.3, 8.94, 8.38, 8.08, 7.51, 7.44, 7.35, 7.35, 7.23, 6.95, 7.31, 7.01, 6.36, 5.57, 4.8, 3.98, 3.53, 3.13, 2.68, 2.24, 2.24, 2.17, 2.4, 2.4, 1.9, 1.9, 1.9, 1.24, 0.57, -0.0, -0.0, -0.0, -0.0, -0.0, -0.0, -0.0, -0.6, -1.34, -0.71, 0.0, 1.13, 2.48, 4.52, 5.81, 8.36, 8.67, 9.27, 10.45, 11.2, 9.89, 7.6, 5.32, 4.77, 5.2, 5.44, 5.94, 5.94, 5.94, 5.44, 3.49, 2.53, 1.61, 1.61, 1.61, 7.61, 7.61, 7.61, 7.61, 7.96, 8.24, 8.58, 8.87, 9.19, 9.5, 9.21, 9.21, 9.5, 9.5, 9.5, 9.21, 9.21, 9.19, 9.5, 10.43, 10.75, 11.33, 11.33, 11.87, 11.52, 10.94, 10.36, 9.46, 9.13, 8.82, 8.82, 9.37, 9.37, 9.86, 9.86, 9.3, 8.73, 8.08, 7.73, 7.44, 7.44, 7.35, 7.07, 6.95, 7.2, 7.01, 6.79, 6.47, 5.57, 5.24, 4.34, 3.98, 3.53, 3.13, 3.13, 3.07, 2.91, 2.91, 2.4, 2.4, 2.15, 1.58, 1.24, 1.26, 1.26, 1.26, 1.58, 0.6, -0.0, -0.99, -1.86, -1.79, -0.6, 0.0, 1.2, 1.9, 2.91, 4.92, 8.4, 9.92, 10.81, 12.07, 12.39, 10.18, 5.78, 4.02, 3.82, 4.27, 4.37, 4.66, 6.99, 4.66, 4.66, 3.84, 1.88, 0.0, 0.0, 0.0, 7.33, 7.33, 7.61, 7.61, 7.96, 7.96, 8.58, 8.87, 9.19, 9.5, 9.5, 9.21, 9.5, 9.5, 9.5, 9.21, 9.21, 9.19, 9.21, 9.82, 10.43, 10.99, 11.33, 11.58, 11.52, 10.94, 10.65, 9.72, 9.13, 9.42, 9.08, 9.37, 9.37, 9.86, 9.86, 9.5, 8.94, 8.65, 8.08, 8.0, 7.44, 7.35, 7.23, 6.7, 6.95, 6.8, 6.6, 6.3, 5.88, 5.57, 5.09, 4.77, 4.44, 3.98, 3.58, 3.53, 3.53, 2.91, 2.91, 2.91, 2.4, 2.4, 1.86, 1.58, 1.26, 1.26, 1.26, 0.63, -0.0, -1.58, -2.6, -2.24, -1.79, -1.6, -0.63, 0.45, 0.89, 3.39, 5.09, 6.01, 7.52, 10.9, 12.39, 10.38, 6.64, 3.98, 3.53, 3.72, 3.79, 5.24, 3.58, 3.14, 3.72, 2.53, 0.0, -2.4, -2.4, -2.4, 7.33, 7.33, 7.61, 7.61, 7.95, 7.96, 8.58, 8.58, 9.19, 9.19, 9.5, 9.5, 9.52, 9.82, 9.5, 9.21, 9.19, 9.19, 9.21, 9.82, 10.43, 10.72, 10.99, 11.33, 11.87, 11.28, 10.36, 10.06, 9.72, 9.42, 9.08, 9.37, 9.37, 9.86, 9.86, 9.76, 9.21, 8.84, 8.29, 8.0, 8.0, 7.72, 7.35, 7.07, 6.95, 6.8, 6.8, 6.51, 6.1, 5.81, 5.57, 5.09, 4.77, 4.44, 4.02, 3.58, 3.53, 3.53, 3.53, 3.07, 2.91, 2.4, 2.4, 1.86, 1.58, 1.26, 1.26, 1.79, 0.89, -0.45, -2.17, -2.68, -3.13, -2.68, -2.24, -1.6, -0.0, 1.88, 3.15, 2.88, 4.56, 8.94, 11.83, 10.35, 8.18, 5.72, 4.43, 3.39, 2.23, 1.9, 1.86, 2.4, 2.5, 1.9, 0.0, -1.49, -1.49, -1.49, 7.33, 7.33, 7.33, 7.61, 7.95, 8.24, 8.58, 8.58, 8.87, 9.19, 9.5, 9.5, 9.8, 9.82, 9.5, 9.19, 9.19, 9.19, 9.5, 9.82, 10.43, 10.72, 10.99, 11.33, 11.33, 11.28, 10.69, 10.3, 9.72, 9.66, 9.42, 9.37, 9.37, 9.86, 9.5, 9.76, 9.21, 9.1, 8.93, 8.55, 8.0, 7.9, 7.35, 7.23, 6.95, 6.95, 6.8, 6.51, 6.1, 5.81, 5.81, 5.51, 5.24, 4.77, 4.02, 4.02, 4.02, 3.53, 3.53, 3.53, 3.07, 3.07, 2.6, 1.86, 1.24, 1.58, 1.9, 1.9, 1.34, 0.0, 0.45, -1.7, -2.17, -2.17, -2.12, -1.26, -0.0, 0.61, 1.76, 2.11, 2.66, 6.68, 9.27, 9.2, 8.23, 6.25, 4.52, 2.63, 0.63, 0.8, 0.89, 1.34, 1.79, 1.86, 0.57, -0.6, -0.6, -0.6, 7.33, 7.33, 7.33, 7.61, 7.95, 8.24, 8.24, 8.58, 8.58, 9.19, 9.19, 9.5, 9.8, 9.82, 9.5, 9.19, 9.48, 9.19, 9.8, 10.12, 10.12, 10.72, 10.99, 10.99, 10.99, 11.28, 10.69, 10.65, 10.06, 10.01, 9.66, 9.94, 9.59, 9.86, 9.5, 9.76, 9.48, 9.1, 9.1, 8.55, 8.18, 8.27, 7.9, 7.61, 7.23, 6.95, 7.2, 6.8, 6.51, 6.3, 5.81, 5.57, 5.09, 5.24, 4.44, 4.02, 4.02, 4.02, 3.58, 3.53, 3.09, 3.07, 2.63, 2.0, 1.58, 0.63, 0.6, 1.26, 1.26, 0.63, 0.45, -0.63, -1.7, -1.7, -1.2, -0.8, -0.0, -0.0, 0.57, 1.23, 2.44, 3.38, 5.13, 7.59, 7.59, 6.13, 3.09, 0.0, -0.89, 0.0, 0.89, 0.45, 0.45, 0.6, 0.0, -0.57, -0.57, -0.57, 7.33, 7.61, 7.61, 7.33, 7.95, 7.95, 8.24, 8.87, 8.58, 9.19, 9.19, 9.5, 9.8, 9.5, 9.19, 9.48, 9.48, 9.19, 9.8, 10.12, 10.12, 10.72, 10.72, 10.99, 10.99, 10.99, 10.69, 10.36, 10.06, 9.72, 10.01, 9.94, 9.94, 9.86, 9.5, 9.76, 9.48, 9.1, 9.35, 8.96, 8.82, 8.43, 7.9, 7.76, 7.61, 7.48, 7.08, 6.8, 6.6, 6.51, 6.3, 5.99, 5.57, 4.8, 4.88, 4.47, 4.02, 4.02, 4.02, 3.58, 3.58, 3.13, 2.63, 2.17, 1.26, -0.0, -0.0, 0.6, 0.6, -0.0, 0.45, -0.0, -0.45, -1.79, -1.2, -0.95, -0.57, -0.0, -0.0, 0.59, 2.0, 2.48, 2.73, 5.72, 8.67, 5.78, 4.92, 2.49, 0.0, -0.63, 0.63, 0.45, 0.0, -0.6, -1.24, -1.9, -1.9, -1.9, 7.61, 7.32, 7.61, 7.61, 7.95, 7.95, 8.24, 8.56, 8.87, 9.19, 9.19, 9.5, 9.5, 9.48, 9.17, 9.48, 9.48, 9.8, 10.12, 10.12, 10.12, 10.4, 10.72, 10.99, 10.99, 10.72, 10.69, 10.36, 10.06, 10.3, 10.23, 10.23, 10.15, 10.41, 10.13, 9.76, 9.63, 9.1, 9.35, 8.96, 8.68, 8.68, 8.68, 8.15, 7.76, 8.0, 7.48, 7.31, 7.01, 6.6, 6.3, 5.88, 5.99, 5.24, 4.89, 4.44, 4.47, 4.02, 4.02, 3.58, 3.58, 3.13, 3.13, 2.24, 1.2, -0.0, -0.0, -0.0, -0.0, 0.45, 0.0, 0.45, -0.0, -0.0, -1.7, -1.2, -0.0, -0.0, -0.0, -0.0, 1.33, 1.8, 2.51, 4.52, 9.36, 7.15, 5.33, 4.11, 1.24, 0.0, 0.0, 1.2, 0.0, -1.49, -2.15, -2.68, -2.68, -2.68, 7.32, 7.32, 7.32, 7.61, 7.93, 8.24, 7.95, 8.56, 8.87, 9.17, 9.19, 9.5, 9.48, 9.17, 9.17, 9.48, 9.48, 9.8, 10.12, 10.12, 10.12, 10.4, 10.72, 10.99, 10.99, 10.4, 10.69, 10.09, 9.77, 10.06, 10.59, 10.23, 10.51, 10.15, 10.41, 10.3, 10.02, 9.63, 9.35, 9.2, 9.2, 8.68, 8.68, 8.51, 8.4, 8.0, 7.6, 7.71, 7.51, 7.09, 6.79, 6.3, 6.04, 5.26, 5.24, 4.88, 4.44, 4.47, 4.02, 4.02, 3.58, 3.58, 3.13, 2.68, 1.34, 0.45, 0.45, 0.0, 0.0, 0.0, -0.45, 0.45, 0.45, 0.89, -0.63, -0.63, -0.0, -0.0, -0.0, -0.0, 0.54, 1.61, 3.14, 9.72, 9.81, 7.6, 4.88, 3.07, 1.0, 0.0, 0.0, 0.0, 0.0, -1.24, -1.9, -2.5, -2.5, -2.5, 6.98, 6.98, 7.32, 7.61, 7.93, 8.24, 8.24, 8.56, 8.87, 9.17, 9.17, 9.17, 9.17, 9.17, 9.17, 9.48, 9.77, 9.8, 9.8, 9.8, 9.8, 10.4, 10.4, 10.99, 10.99, 10.69, 10.69, 10.09, 9.77, 10.06, 10.06, 10.23, 10.23, 10.51, 10.41, 10.04, 10.3, 10.02, 9.88, 9.48, 9.2, 9.2, 9.01, 8.91, 8.51, 8.1, 8.22, 7.81, 8.0, 7.51, 7.09, 6.79, 6.04, 5.57, 5.26, 5.24, 4.89, 4.44, 4.47, 4.02, 4.02, 3.58, 3.13, 2.68, 1.79, 0.45, 0.0, 0.0, 0.0, 0.0, 0.0, 0.0, 0.0, 0.45, 0.0, -0.0, -0.0, -0.0, 0.57, -0.0, -0.0, 1.24, 4.52, 8.63, 8.71, 6.11, 3.58, 0.57, -0.54, -0.57, -0.54, 0.0, 0.0, -0.54, -1.2, -1.61, -1.61, -1.61, 6.98, 6.98, 7.32, 7.32, 7.61, 7.93, 8.24, 8.56, 8.56, 8.56, 8.85, 9.13, 9.46, 9.46, 9.17, 9.48, 9.77, 9.8, 9.8, 10.09, 10.09, 10.36, 10.4, 10.4, 10.94, 10.69, 10.36, 10.09, 9.77, 10.06, 9.72, 9.72, 10.01, 10.51, 10.15, 10.41, 10.3, 9.76, 10.02, 9.88, 9.48, 9.71, 9.2, 9.01, 9.01, 8.72, 8.72, 8.22, 7.81, 8.0, 7.51, 7.09, 6.79, 6.47, 5.57, 5.7, 5.24, 4.89, 4.88, 4.44, 4.02, 4.02, 3.58, 3.07, 2.17, 0.89, 0.0, 0.0, 0.0, 0.0, 0.0, 0.45, 0.0, 0.0, -0.45, -0.45, -0.45, 0.0, 0.45, -0.0, -0.0, 0.63, 3.6, 5.05, 5.6, 3.6, -0.0, -1.86, -1.61, -1.61, -1.0, -0.53, 0.0, 0.0, 0.0, -0.65, -0.65, -0.65, 6.98, 6.98, 7.32, 7.32, 7.61, 7.93, 8.24, 8.24, 8.85, 8.85, 8.85, 9.13, 9.13, 9.46, 9.17, 9.48, 10.09, 9.8, 10.09, 10.09, 10.09, 10.36, 10.36, 10.69, 10.69, 10.69, 10.36, 10.09, 9.77, 10.06, 9.72, 9.72, 10.01, 9.66, 9.94, 10.23, 9.86, 10.13, 9.76, 10.02, 9.63, 9.48, 9.6, 9.2, 9.42, 9.01, 8.72, 8.72, 8.3, 8.42, 8.0, 7.51, 7.21, 6.79, 6.47, 5.99, 5.7, 5.24, 4.89, 4.88, 4.44, 3.98, 3.98, 3.53, 2.63, 1.6, 0.45, 0.0, 0.45, 0.0, 0.0, 0.45, 0.0, 0.0, 0.45, 0.45, -0.45, -0.63, 0.0, 0.0, 0.0, 0.89, 2.6, 3.6, 4.11, 2.91, -0.63, -2.24, -1.86, -2.21, -2.51, -1.84, 0.0, 0.65, 0.0, 0.0, 0.0, 0.0, 6.7, 6.7, 7.32, 7.32, 7.61, 7.93, 7.93, 7.93, 8.53, 8.53, 8.85, 9.13, 9.13, 9.46, 9.17, 9.77, 10.09, 10.09, 10.09, 10.09, 10.09, 10.36, 10.36, 10.69, 10.69, 10.36, 10.36, 9.77, 10.06, 9.72, 9.72, 9.72, 9.66, 9.66, 9.94, 9.59, 9.86, 9.5, 9.76, 9.76, 9.63, 9.48, 9.35, 9.2, 9.2, 9.42, 9.01, 8.91, 8.72, 8.3, 8.22, 7.51, 7.09, 6.79, 6.79, 6.3, 5.99, 5.57, 5.24, 4.8, 4.88, 4.44, 3.98, 3.39, 2.91, 1.86, 0.95, 0.0, 0.0, 0.0, 0.0, 0.0, 0.0, -0.45, -0.45, 0.0, 0.0, -0.63, 0.0, 0.0, 0.0, 0.6, 1.7, 3.13, 3.98, 3.97, 0.89, -1.79, -2.24, -2.5, -3.16, -2.23, 0.0, 1.33, 1.33, 0.0, 0.0, 0.0, 6.98, 6.98, 7.3, 7.32, 7.32, 7.93, 8.22, 8.22, 8.5, 8.53, 8.53, 9.13, 9.13, 9.46, 9.17, 9.77, 9.77, 9.77, 9.77, 10.06, 10.06, 10.3, 10.65, 10.36, 10.65, 10.65, 10.65, 10.06, 10.06, 9.72, 9.72, 9.66, 9.66, 9.94, 9.59, 9.59, 9.86, 9.5, 9.76, 9.21, 9.48, 9.1, 9.1, 9.35, 8.96, 9.2, 8.8, 9.01, 8.51, 8.51, 8.3, 8.0, 7.51, 7.01, 6.6, 6.3, 5.88, 5.99, 5.57, 5.24, 4.8, 4.34, 4.3, 3.87, 3.32, 2.15, 1.24, 0.6, 0.0, 0.0, 0.0, 0.0, -0.45, -0.45, -0.63, 0.0, 0.0, 0.0, 0.0, -0.57, 0.0, 0.0, 1.24, 2.91, 4.02, 4.92, 3.58, 0.0, -1.79, -2.4, -2.23, -2.48, 0.0, 0.73, 1.27, 0.7, 0.7, 0.7, 6.98, 6.98, 7.3, 7.6, 7.6, 7.6, 7.9, 8.22, 8.22, 8.82, 8.53, 9.13, 9.13, 9.46, 9.17, 9.48, 9.77, 10.06, 10.06, 10.06, 10.3, 10.3, 10.3, 10.3, 10.65, 10.65, 10.3, 10.06, 10.06, 9.72, 9.72, 9.66, 9.66, 9.94, 9.59, 9.59, 9.5, 9.3, 9.58, 9.21, 9.48, 9.1, 9.1, 8.96, 8.96, 9.2, 8.68, 8.68, 8.91, 8.51, 8.51, 7.81, 7.31, 7.51, 7.01, 6.6, 6.3, 5.81, 5.4, 5.51, 5.09, 4.77, 4.34, 4.3, 3.6, 2.5, 1.9, 1.24, 0.57, 0.0, 0.0, 0.0, -0.45, 0.0, 0.0, -0.6, -0.8, -0.6, -0.95, -0.71, -0.71, 0.0, 1.2, 3.07, 3.98, 4.92, 4.47, 2.97, 0.0, -1.26, -1.2, -1.13, 0.0, 0.63, 0.66, 0.59, 0.59, 0.59, 6.98, 6.98, 6.98, 7.3, 7.3, 7.3, 7.9, 7.9, 8.22, 8.82, 8.53, 9.13, 9.13, 9.46, 9.17, 9.46, 9.72, 9.72, 10.06, 10.06, 10.3, 10.3, 10.3, 10.3, 10.3, 10.3, 10.3, 10.3, 9.72, 9.72, 10.01, 9.66, 9.42, 9.71, 9.37, 9.37, 9.3, 9.3, 9.58, 9.21, 9.21, 9.1, 9.1, 8.96, 8.82, 8.43, 8.68, 8.68, 8.28, 8.51, 8.51, 8.0, 7.71, 7.31, 6.8, 6.6, 6.1, 6.1, 5.81, 5.4, 5.09, 5.09, 4.6, 4.11, 3.6, 2.79, 1.61, 1.49, 1.24, 0.71, 0.8, 0.45, 0.0, 0.45, 0.0, -0.95, -1.49, -1.2, -1.2, -0.57, -0.54, 0.0, 1.33, 2.23, 3.82, 4.43, 4.92, 4.43, 2.91, 0.8, 0.0, 0.0, 0.0, 0.0, 0.59, 1.13, 1.13, 1.13, 6.69, 6.69, 6.69, 6.69, 7.3, 7.3, 7.9, 7.9, 8.22, 8.5, 8.82, 8.53, 9.13, 9.13, 9.46, 9.46, 9.46, 9.72, 9.72, 10.01, 10.59, 10.59, 10.59, 10.59, 10.3, 10.3, 10.3, 10.3, 9.72, 10.01, 10.01, 9.66, 9.42, 9.37, 9.37, 9.37, 9.3, 9.3, 9.21, 9.21, 8.84, 9.1, 9.1, 8.82, 8.82, 8.43, 8.68, 8.68, 8.28, 8.15, 8.4, 8.0, 7.48, 7.31, 6.8, 6.8, 6.51, 6.1, 5.6, 5.81, 5.31, 4.9, 4.8, 4.4, 3.88, 2.79, 1.88, 1.61, 1.2, 0.71, 0.57, 0.95, 0.89, 0.89, 0.0, -0.95, -1.49, -1.2, -1.2, -0.57, 0.0, 0.0, 1.27, 2.23, 3.35, 4.3, 4.43, 4.02, 4.02, 3.07, 1.24, 0.0, 0.0, 0.54, 1.2, 1.88, 1.88, 1.88, 6.69, 6.69, 6.69, 6.69, 7.3, 7.3, 7.9, 7.9, 8.22, 8.5, 8.82, 8.53, 9.13, 9.13, 9.46, 9.46, 9.46, 9.72, 9.72, 10.01, 10.59, 10.59, 10.59, 10.59, 10.3, 10.3, 10.3, 10.3, 9.72, 10.01, 10.01, 9.66, 9.42, 9.37, 9.37, 9.37, 9.3, 9.3, 9.21, 9.21, 8.84, 9.1, 9.1, 8.82, 8.82, 8.43, 8.68, 8.68, 8.28, 8.15, 8.4, 8.0, 7.48, 7.31, 6.8, 6.8, 6.51, 6.1, 5.6, 5.81, 5.31, 4.9, 4.8, 4.4, 3.88, 2.79, 1.88, 1.61, 1.2, 0.71, 0.57, 0.95, 0.89, 0.89, 0.0, -0.95, -1.7, -1.2, -1.2, -0.57, 0.0, 0.59, 1.11, 2.48, 3.16, 4.0, 3.87, 3.98, 3.58, 3.58, 3.58, 3.07, 2.63, 2.63, 3.07, 3.39, 3.39, 3.39]}, {"header": {"dx": 0.06612293990616946, "dy": 0.0552356325346848, "nx": 98, "ny": 59, "la1": 35.046912555036876, "la2": 31.78801023549047, "lo1": -121.43107172385933, "lo2": -114.95102361305473, "refTime": "2026040810", "parameterCategory": 1, "parameterNumber": 3}, "data": [-10.41, -10.04, -10.41, -10.41, -9.76, -8.84, -8.55, -8.0, -7.44, -6.87, -6.15, -4.65, -2.91, -2.68, -3.39, -3.72, -4.46, -3.72, -3.63, -3.22, -1.98, -0.0, -0.0, 0.59, 0.61, -0.0, -0.0, -0.0, -0.6, 0.0, 0.0, 0.0, 0.57, 1.2, 0.61, 0.0, 0.0, -0.59, -0.65, 0.0, 0.6, 0.54, 0.0, -1.99, -4.4, -6.1, -7.93, -8.74, -8.61, -8.36, -5.13, 0.99, 2.24, 2.91, 4.0, 4.46, 4.43, 3.9, 3.0, 2.8, 2.04, 1.49, 0.71, 0.6, 1.9, 1.84, 2.2, 2.35, 2.44, 3.16, 2.34, 1.47, 0.78, 0.0, 0.66, 1.41, 2.23, 1.4, -0.54, -0.0, 0.59, 0.59, -0.0, -1.2, -1.24, -0.6, -0.0, 0.0, 0.0, -1.27, -3.09, -5.49, -6.24, -6.24, -5.49, -4.94, -4.29, -3.55, -10.41, -10.41, -10.41, -10.04, -10.3, -9.76, -9.21, -8.29, -7.73, -7.44, -6.44, -3.84, -2.53, -1.9, -1.6, -2.12, -3.14, -4.43, -4.19, -3.38, -3.99, -2.09, -0.0, -0.0, 1.33, 1.4, 0.65, -0.0, -0.71, -0.57, -0.0, 0.0, 0.95, 1.24, 1.88, 1.27, 0.63, 0.0, -0.59, -1.2, -0.71, -0.76, -2.8, -6.05, -9.4, -10.89, -11.08, -10.89, -10.15, -7.73, -0.65, 2.63, 2.91, 3.82, 4.93, 5.05, 4.74, 4.65, 3.79, 3.2, 3.0, 2.29, 2.07, 2.15, 2.53, 2.79, 2.88, 2.2, 2.18, 3.11, 3.07, 3.11, 0.74, 0.0, 0.0, 0.73, 2.17, 1.4, -0.54, -0.0, 0.59, 0.59, -0.0, -1.2, -1.24, -0.6, -0.0, 0.0, 0.0, -1.27, -3.09, -5.49, -6.24, -6.24, -5.49, -4.94, -4.29, -3.55, -10.41, -10.41, -10.41, -10.41, -10.41, -10.04, -9.5, -8.94, -8.65, -8.0, -6.98, -6.03, -3.49, -2.53, -1.61, -1.24, -1.7, -3.6, -4.74, -5.15, -4.29, -5.2, -4.21, -1.98, -0.0, 1.16, 1.88, 1.2, -0.0, -1.2, -1.9, -0.99, -0.0, 1.34, 1.86, 1.6, 1.23, 0.7, -0.7, -2.0, -3.15, -6.98, -9.85, -12.45, -14.42, -14.37, -13.02, -10.75, -7.9, -1.4, 2.4, 3.32, 3.74, 4.93, 5.44, 5.43, 5.09, 4.65, 4.03, 3.69, 3.09, 2.8, 2.98, 4.11, 3.72, 3.64, 3.79, 3.69, 3.91, 4.5, 4.5, 3.61, 1.47, 0.0, -0.7, -0.66, 0.0, 1.5, -0.57, -1.26, -0.0, -0.0, -0.54, -1.84, -1.27, -0.53, -0.0, 0.0, -1.2, -3.0, -5.18, -6.79, -6.88, -6.95, -6.64, -5.0, -3.64, -3.64, -10.41, -10.41, -10.96, -10.41, -10.41, -10.41, -10.41, -9.86, -8.94, -8.29, -7.9, -7.48, -5.05, -3.72, -3.07, -2.5, -2.21, -3.07, -3.72, -4.65, -3.12, -3.22, -5.2, -4.5, -2.82, -0.0, 0.61, 0.54, -0.0, -1.24, -2.53, -2.51, -2.07, -0.85, 0.0, 0.0, 0.0, -1.03, -2.82, -6.14, -9.23, -12.49, -14.11, -13.49, -11.49, -9.48, -6.79, -3.11, 0.0, 2.21, 3.6, 3.45, 4.24, 4.93, 5.34, 5.09, 4.43, 4.65, 3.69, 3.09, 3.09, 2.8, 4.01, 4.81, 5.06, 5.0, 4.83, 5.31, 6.23, 6.11, 5.99, 4.48, 2.31, 0.0, -2.53, -3.16, -3.09, -2.31, -0.76, -2.12, -1.16, -1.2, -1.16, -1.23, -0.7, -0.59, -0.0, -1.26, -2.79, -6.05, -6.87, -6.79, -6.95, -6.64, -5.06, -2.48, -2.48, -2.11, -10.41, -10.41, -10.96, -10.96, -10.96, -10.96, -10.7, -10.41, -9.5, -8.65, -8.18, -7.76, -5.05, -4.0, -3.6, -3.82, -4.0, -3.14, -3.58, -4.43, -4.21, -2.6, -2.8, -3.35, -2.99, -3.35, -0.79, -0.85, -0.95, -1.7, -2.91, -5.05, -7.69, -7.6, -6.71, -6.0, -5.58, -6.95, -8.85, -11.52, -12.52, -10.86, -7.9, -3.69, -1.55, -0.71, 0.0, 0.69, 2.04, 2.88, 2.79, 2.84, 3.45, 4.66, 4.66, 4.46, 4.01, 3.9, 4.46, 3.8, 2.4, 2.88, 4.46, 5.43, 6.01, 5.49, 4.46, 4.56, 6.32, 6.79, 5.99, 4.71, 4.24, 2.31, -0.61, -4.3, -6.07, -4.4, -1.35, -1.9, -2.44, -2.0, -1.76, -1.3, -1.35, -1.84, -2.68, -3.16, -6.64, -7.73, -6.71, -5.38, -5.94, -3.79, -1.88, -1.16, -1.23, -2.2, -10.41, -10.41, -10.96, -10.96, -10.96, -10.7, -11.07, -10.51, -9.86, -9.21, -8.55, -7.76, -4.4, -3.07, -3.45, -4.24, -4.73, -4.09, -3.6, -4.66, -8.12, -6.79, -5.45, -4.2, -4.21, -5.2, -5.44, -3.93, -3.51, -3.13, -2.63, -2.68, -4.3, -10.49, -12.52, -11.53, -10.49, -10.28, -11.87, -11.9, -9.9, -6.99, -2.07, 0.0, 0.78, 0.76, 0.0, 0.0, 0.73, 0.72, 1.27, 1.84, 3.07, 3.45, 3.49, 3.48, 3.72, 3.38, 3.69, 3.21, 2.99, 2.98, 4.81, 5.37, 5.3, 4.6, 4.46, 3.64, 4.01, 3.8, 3.02, 3.19, 4.58, 5.4, 2.9, -1.33, -4.93, -4.12, -1.16, -1.58, -3.12, -3.43, -3.43, -2.66, -3.48, -4.77, -7.01, -8.3, -8.93, -8.27, -6.64, -6.88, -3.64, -0.89, -0.63, -1.88, -2.04, -2.99, -10.3, -10.41, -10.58, -10.96, -11.34, -11.07, -11.07, -11.07, -10.41, -9.76, -8.55, -7.6, -3.45, -1.88, -2.23, -2.5, -3.6, -5.05, -6.08, -4.44, -6.01, -10.18, -10.86, -10.58, -10.62, -10.35, -11.8, -11.64, -9.75, -6.07, -2.68, -1.26, -1.9, -4.43, -10.28, -12.07, -11.98, -11.2, -9.08, -7.06, -6.88, -6.17, -6.88, -5.15, -5.43, -3.76, -2.28, -1.45, 0.0, 0.0, 0.0, 0.61, 2.53, 3.45, 3.49, 3.07, 3.43, 3.22, 3.0, 2.9, 3.09, 2.98, 2.98, 3.11, 2.88, 3.55, 3.09, 2.29, 0.73, 0.74, 0.0, 0.74, 1.36, 1.45, 1.48, 0.74, -1.8, -1.58, 0.0, -0.61, -4.46, -6.13, -6.54, -6.94, -8.36, -9.83, -11.4, -10.95, -9.27, -8.3, -8.76, -6.63, -1.2, -0.0, -1.7, -2.84, -4.22, -3.8, -10.04, -10.41, -10.58, -10.96, -11.34, -11.07, -11.62, -11.07, -10.41, -9.76, -8.96, -7.81, -4.15, -2.53, -1.99, -1.16, -1.84, -3.72, -5.0, -3.11, -1.88, -3.53, -8.24, -12.47, -12.79, -12.38, -13.15, -12.79, -10.04, -7.64, -5.37, -3.58, -3.95, -5.6, -8.48, -11.09, -12.05, -10.02, -7.28, -6.18, -6.0, -8.67, -12.79, -14.1, -11.77, -8.41, -4.87, -2.83, -0.74, -2.04, -0.66, 0.61, 3.07, 4.09, 4.12, 4.11, 3.64, 3.55, 3.09, 2.18, 2.26, 2.11, 1.27, 1.16, 1.9, 1.84, 1.52, 0.0, 0.0, -0.7, -0.71, -0.73, -1.47, -2.25, -2.34, 0.0, 0.71, 2.0, 1.47, 0.74, -2.6, -7.57, -8.46, -9.36, -10.73, -11.45, -11.09, -10.25, -8.91, -7.6, -5.44, -2.79, -0.0, -0.51, -2.68, -3.78, -5.21, -4.46, -10.58, -10.96, -11.34, -11.5, -11.62, -11.24, -11.62, -11.62, -10.96, -10.3, -8.96, -8.72, -7.81, -7.71, -5.46, -3.07, -3.35, -3.64, -3.55, -2.2, 0.0, -0.7, -2.21, -4.43, -7.6, -6.99, -6.4, -8.75, -10.02, -8.94, -10.52, -12.02, -12.07, -10.96, -8.48, -8.19, -9.77, -10.23, -8.24, -8.4, -9.33, -10.7, -12.72, -12.08, -10.52, -9.72, -9.33, -6.32, -4.37, -3.7, -2.99, 0.65, 3.45, 4.46, 4.43, 4.65, 4.56, 3.6, 3.15, 2.31, 2.31, 0.78, 0.0, 1.2, 2.24, 2.21, 1.52, 0.0, 0.0, -0.61, -0.7, -0.67, -2.25, -2.82, -2.65, -0.76, 0.0, 1.49, 1.5, 1.41, 0.76, -6.11, -7.15, -8.46, -9.29, -10.05, -9.26, -7.47, -4.77, -2.91, -0.59, -0.0, -1.23, -2.79, -3.53, -4.11, -5.64, -5.0, -11.34, -11.5, -11.88, -11.78, -12.16, -11.99, -11.99, -11.62, -10.96, -10.3, -9.88, -9.71, -9.51, -11.28, -10.45, -8.82, -8.4, -8.63, -7.76, -6.4, -4.15, -3.83, -3.16, -3.2, -3.45, -4.74, -3.48, -6.64, -9.69, -10.79, -12.52, -14.75, -14.75, -12.07, -9.39, -6.17, -4.89, -5.6, -6.88, -6.45, -8.63, -10.93, -4.93, -1.26, -2.17, -7.12, -9.81, -8.91, -8.3, -5.0, -1.16, 1.9, 3.45, 4.12, 4.36, 4.56, 3.8, 3.06, 2.35, 1.6, 1.52, 0.74, 1.13, 2.68, 2.68, 2.53, 2.2, 1.93, 0.59, -0.61, -0.73, -2.11, -2.82, -2.82, -1.39, -0.69, -1.41, -1.45, -1.36, -0.7, 0.0, 0.0, -4.88, -4.77, -4.3, -4.11, -4.27, -3.16, -1.9, -0.0, 1.0, -0.51, -3.14, -4.3, -4.43, -5.46, -6.01, -5.37, -11.5, -11.88, -12.03, -12.16, -12.16, -12.54, -12.16, -11.62, -10.96, -10.68, -10.16, -10.16, -10.16, -10.21, -9.97, -10.93, -11.61, -11.87, -10.97, -10.81, -10.62, -9.36, -6.55, -3.82, -3.04, -6.18, -8.0, -7.64, -9.3, -11.64, -12.47, -10.14, -4.92, -7.89, -10.49, -10.73, -9.38, -6.18, -3.45, -1.24, -2.17, -3.13, 0.89, 4.02, 1.34, -2.24, -4.02, -4.02, -3.13, -1.86, -0.0, 1.2, 2.21, 2.79, 3.64, 4.46, 3.7, 2.28, 0.74, 0.0, 0.0, 0.0, 1.86, 3.07, 3.07, 2.79, 3.79, 3.69, 1.47, 0.0, -2.26, -3.46, -3.47, -2.65, -1.97, -1.43, -2.82, -3.64, -4.37, -4.5, -3.6, -0.69, -0.69, -3.39, -2.5, -1.16, -1.13, -1.11, 0.0, 0.0, 0.0, -1.2, -3.39, -4.43, -4.88, -5.31, -6.08, -5.69, -11.5, -11.88, -12.03, -12.16, -12.54, -12.54, -12.16, -11.88, -11.12, -10.83, -10.83, -10.83, -10.68, -10.13, -8.0, -7.76, -8.72, -10.91, -11.87, -11.56, -8.67, -6.17, -5.34, -3.47, -1.79, -1.86, -2.21, -2.21, -3.07, -4.85, -5.81, -1.79, 1.2, -1.26, -4.88, -6.71, -5.67, -2.6, 0.0, 1.34, 1.34, 1.34, 2.68, 2.24, 0.63, -0.0, -0.76, -0.0, -0.0, -0.0, -0.99, -0.89, 0.0, 0.61, 1.41, 2.2, 2.23, 1.54, 0.0, -1.44, -2.23, -0.66, 2.24, 2.5, 2.6, 2.51, 4.56, 4.37, 2.26, 0.0, -2.0, -3.46, -3.46, -3.06, -2.31, -2.39, -3.06, -3.79, -5.52, -6.36, -5.95, -2.97, -0.75, -1.13, -0.65, -0.61, -0.57, -0.63, 0.0, 0.0, 0.0, -1.16, -2.17, -3.58, -4.73, -4.66, -4.73, -4.66, -11.5, -11.88, -12.03, -12.16, -12.16, -12.16, -12.16, -11.88, -11.5, -11.22, -10.96, -10.96, -10.96, -10.51, -9.02, -7.27, -6.32, -7.9, -9.71, -10.21, -8.1, -5.4, -4.19, -3.2, -1.26, 0.0, 0.99, 2.21, 1.95, -0.51, -0.59, 1.61, 3.07, 2.17, 0.0, 0.0, -0.45, 0.89, 1.2, 1.2, -0.0, -0.63, -1.34, -1.26, -1.79, -2.53, -3.16, -2.41, -2.15, -2.21, -3.6, -3.87, -3.58, -3.39, -2.15, -1.66, -0.81, 1.07, 0.67, -0.67, -1.94, -1.24, 1.24, 1.2, 0.89, 1.24, 2.51, 3.72, 2.73, 2.0, 0.57, -0.57, -1.35, -1.41, -2.18, -3.02, -3.78, -4.6, -5.78, -6.23, -5.35, -4.29, -4.12, -3.85, 0.0, -0.63, -1.41, -1.94, -0.63, 0.0, 0.0, -0.57, -0.61, -2.21, -3.72, -3.78, -3.35, -3.6, -11.5, -11.88, -12.03, -12.16, -12.16, -12.16, -11.78, -11.88, -11.5, -11.5, -11.5, -11.24, -11.07, -11.07, -10.59, -8.85, -6.98, -6.06, -7.17, -8.0, -7.9, -5.59, -4.29, -3.64, -3.2, -0.89, 0.53, 1.76, 2.82, 2.32, 1.07, 0.59, 0.71, 1.2, 1.2, 1.7, 1.2, 0.89, 0.0, 0.0, -1.34, -3.53, -7.6, -8.67, -4.92, -4.82, -4.93, -7.4, -6.99, -6.36, -6.36, -7.6, -9.39, -10.68, -9.6, -6.64, -3.74, -0.7, 0.0, 0.59, -1.2, -2.12, -1.24, -1.58, -1.7, -0.89, 0.0, 1.58, 2.23, 3.6, 3.97, 2.68, 1.2, 0.0, -1.41, -3.15, -3.8, -3.8, -4.6, -4.83, -4.11, -6.39, -7.51, -6.94, -2.69, -2.31, -2.26, -1.8, -1.16, 0.0, 0.0, 0.0, -0.63, -1.27, -2.0, -1.8, -1.88, -2.0, -11.5, -11.88, -11.62, -12.16, -12.16, -12.16, -11.62, -11.88, -11.5, -11.88, -11.62, -11.62, -11.62, -11.35, -10.88, -10.36, -8.87, -7.61, -6.69, -6.67, -6.95, -6.34, -4.81, -4.16, -4.17, -2.68, -0.54, -0.0, 1.11, 1.08, 1.08, 0.57, -0.0, -0.0, 0.0, 0.0, 0.0, -0.45, 0.0, -0.89, -1.79, -4.02, -7.15, -4.47, -1.34, -0.45, -1.34, -2.24, -5.51, -7.4, -8.67, -9.39, -9.6, -7.54, -5.36, -6.71, -5.81, -3.6, -1.11, 0.6, -0.0, -2.5, -3.74, -5.09, -5.09, -3.74, -2.24, 0.0, 0.6, 3.07, 4.92, 4.47, 3.58, 1.7, 0.0, -1.33, -2.0, -2.66, -3.55, -2.88, -3.16, -4.43, -5.59, -4.96, -4.56, -5.38, -3.55, -1.27, 0.0, 0.61, 0.0, 0.0, -0.67, -0.63, -0.63, -1.33, -1.61, -1.61, -11.5, -11.62, -11.62, -11.78, -12.16, -11.78, -11.62, -11.88, -11.88, -11.88, -11.62, -11.99, -11.72, -11.72, -11.44, -10.94, -9.8, -8.88, -7.95, -7.03, -6.98, -6.7, -6.08, -5.72, -5.08, -3.49, -1.79, 0.0, -0.0, -0.0, 0.43, 0.53, 0.54, 0.95, 0.89, 0.0, -0.63, -0.0, -0.0, -0.63, -1.79, -1.79, -0.45, 0.63, 0.63, 2.24, 1.79, 0.0, -0.89, -2.24, -4.02, -4.47, -3.07, -1.34, -0.89, -2.24, -4.02, -3.32, -0.71, 0.0, 0.0, -0.89, -2.24, -4.38, -6.45, -5.94, -3.53, -1.34, 0.89, 3.07, 3.6, 3.53, 2.63, 1.86, 0.63, 0.0, 0.0, 0.0, -1.2, -1.2, -1.0, -1.4, -2.2, -3.09, -2.4, -1.33, -2.07, 0.0, 1.16, 1.33, 0.0, -1.19, -1.27, -0.61, -1.32, -1.94, -2.23, -2.23, -11.24, -11.62, -11.62, -11.62, -11.62, -11.62, -11.62, -11.62, -11.62, -11.62, -12.16, -11.99, -11.72, -11.44, -11.8, -10.94, -10.4, -9.8, -8.58, -7.95, -7.33, -7.33, -6.7, -5.67, -4.4, -2.75, -1.55, 0.0, 0.0, 0.0, 0.0, 0.45, 1.2, 1.79, 2.17, 1.7, -0.0, -0.0, -0.0, -0.63, -1.2, -1.26, -0.0, -0.0, 0.0, 1.34, 1.79, 0.89, 1.26, 0.63, 0.0, 0.0, 0.0, 0.45, 0.45, 0.0, -0.6, 0.0, 0.0, 0.0, 0.0, 0.0, 0.0, 0.0, -1.2, -2.24, -1.79, -1.34, 0.0, 1.86, 1.24, -0.0, 0.0, 0.0, 0.0, 1.34, 2.68, 2.12, 0.63, 0.0, 0.0, 0.0, -1.13, -2.04, -2.18, -0.66, 0.0, 1.2, 0.0, 0.0, -1.36, -1.19, -1.8, -1.94, -2.99, -2.8, -2.86, -2.86, -11.24, -11.62, -11.62, -11.62, -11.62, -11.62, -11.62, -11.62, -11.62, -11.62, -11.99, -11.72, -12.09, -11.8, -11.8, -10.69, -10.4, -9.82, -9.21, -7.96, -7.33, -6.96, -6.96, -4.57, -2.25, -1.16, -0.56, 0.0, 0.0, 0.0, -0.55, 0.0, 0.63, 1.79, 2.97, 2.4, 1.26, -0.0, -0.95, -1.2, -0.95, -0.8, -1.24, -1.86, -0.63, 0.0, 0.0, 0.0, 1.34, 1.79, 2.8, 2.8, 2.68, 1.34, 0.0, 0.0, 0.0, 0.95, 0.0, 0.0, 0.0, 1.26, 0.95, 2.24, 2.68, 0.89, 0.0, -2.54, -1.79, -0.0, -0.6, -1.86, -1.7, -1.49, -0.57, 1.86, 2.68, 2.5, 1.9, 1.26, 0.6, 0.57, -0.53, -1.88, -2.0, -2.07, -2.48, 0.0, -1.35, -2.9, -2.18, -0.72, -1.76, -3.38, -3.69, -2.88, -3.15, -3.15, -11.24, -11.62, -11.62, -11.62, -11.62, -11.62, -11.62, -11.99, -11.99, -11.99, -11.99, -11.72, -12.09, -11.8, -11.44, -10.86, -10.69, -10.43, -8.87, -6.96, -5.62, -6.5, -6.31, -4.71, -3.15, -2.13, -1.69, -1.58, -1.55, -1.65, -1.11, 0.0, 0.0, 1.7, 2.68, 2.79, 1.9, -0.0, -1.24, -1.58, -0.6, -0.0, -0.0, -0.0, -0.0, -0.0, 0.45, 0.0, 1.34, 1.34, 1.79, 1.58, 2.24, 1.79, 0.0, 0.0, 0.0, 0.0, 0.0, 0.0, 0.0, 1.26, 1.34, 1.79, 2.17, 1.7, 0.0, -2.5, -3.14, -1.49, -1.24, -1.2, -0.61, -0.99, -0.63, -0.0, 0.0, 0.57, 0.65, 0.54, 0.57, 0.0, -1.0, -2.23, -3.15, -5.09, -7.33, -7.91, -6.31, -6.28, -3.55, -2.2, -2.72, -3.76, -4.36, -2.88, -2.73, -2.73, -11.07, -11.62, -11.62, -11.62, -11.62, -11.62, -11.62, -11.72, -11.72, -11.72, -11.99, -11.72, -12.09, -11.8, -11.8, -11.23, -11.28, -10.94, -9.27, -6.88, -5.99, -6.88, -6.92, -7.08, -6.88, -6.14, -5.49, -4.46, -3.83, -2.61, -0.57, 0.0, -0.0, 0.8, 1.61, 1.61, 1.84, 0.61, -0.0, -0.65, -0.0, 0.63, 1.2, 1.2, 0.6, -0.0, 0.0, 1.34, 1.34, 1.34, 1.79, 1.79, 1.79, 1.79, 0.89, 0.63, 0.0, 0.0, 0.0, 0.0, 0.0, 0.89, 1.26, 1.58, 1.6, 1.2, 0.0, -1.24, -1.33, 0.0, 1.23, 1.52, 1.54, 0.0, -2.29, -2.53, -2.68, -2.5, -0.71, 0.0, 0.0, 0.0, 0.0, -0.54, -1.4, -2.84, -3.16, -2.51, -6.95, -4.74, -4.46, -5.0, -4.71, -4.74, -4.75, -5.06, -5.06, -5.06, -11.07, -11.62, -11.62, -11.24, -11.24, -11.62, -11.35, -11.72, -11.72, -11.72, -11.72, -11.72, -11.72, -11.8, -11.52, -11.87, -11.33, -10.88, -9.59, -9.66, -9.17, -8.87, -8.59, -8.58, -8.85, -8.22, -6.95, -6.01, -4.43, -1.58, 0.0, -0.0, -0.0, -0.0, 0.54, 0.53, 0.61, -0.0, -0.0, -0.0, -0.0, 0.8, 1.26, 0.95, 0.6, -0.0, -0.0, 0.95, 1.34, 1.34, 1.79, 1.79, 1.79, 1.79, 1.34, 0.0, 0.57, 0.57, 0.0, 0.0, 0.0, 2.0, 1.9, 1.58, -0.0, -0.0, -0.0, 0.0, 1.24, 3.14, 5.06, 5.28, 3.68, 0.74, -2.9, -6.7, -6.13, -4.11, -3.32, -1.7, -0.6, 0.0, 0.71, 1.49, 1.34, -0.0, -0.0, 0.0, -0.51, -1.8, -4.12, -6.68, -5.86, -4.74, -5.31, -5.01, -4.75, -4.75, -11.07, -11.07, -11.07, -11.07, -11.07, -11.62, -11.35, -11.72, -11.44, -11.44, -11.72, -11.72, -11.72, -11.8, -11.52, -11.58, -11.33, -10.94, -10.88, -10.88, -10.36, -9.48, -9.19, -9.17, -9.17, -8.56, -7.32, -5.71, -3.09, -0.45, 0.63, -0.0, -0.0, -0.0, -0.0, -0.0, -0.0, -0.0, -0.0, -0.0, 0.71, 1.24, 1.24, 1.24, 0.6, -0.0, -0.0, 1.26, 1.26, 1.79, 1.79, 1.79, 1.79, 1.79, 1.79, 0.0, 0.63, 0.89, 0.0, 0.0, 0.63, 1.86, 1.49, 0.6, -0.0, -0.0, -0.0, -0.0, 1.34, 2.68, 2.86, 3.35, 2.44, 1.16, -6.07, -8.55, -9.18, -7.14, -4.77, -3.13, -1.34, 0.0, 0.95, 1.79, 1.7, 1.26, -0.0, -1.34, -2.51, -1.93, -5.52, -7.61, -6.92, -4.71, -3.35, -2.79, -3.16, -3.16, -11.07, -11.07, -11.07, -11.07, -11.07, -11.44, -11.35, -11.72, -11.8, -11.8, -11.44, -11.44, -11.44, -11.8, -11.52, -11.33, -10.99, -10.69, -10.69, -10.72, -10.13, -9.21, -8.87, -8.85, -9.13, -8.56, -7.33, -5.72, -2.86, -0.63, 0.0, 0.0, -0.0, -0.0, -0.0, -0.0, -0.0, -0.0, -0.0, -0.0, 0.54, 1.2, 1.61, 1.61, 0.99, 0.57, 1.26, 1.58, 1.58, 1.26, 1.79, 1.79, 1.79, 1.79, 1.79, 1.79, 0.89, 0.6, 0.0, 0.0, 0.89, 1.2, 1.34, 0.45, -0.0, 0.45, 0.0, 0.0, 0.0, 0.0, 0.0, 0.0, 1.34, 0.89, -2.68, -7.12, -7.98, -7.33, -5.02, -3.98, -2.24, -0.89, 0.0, 0.0, 0.0, -0.0, -1.2, -3.53, -4.66, -5.94, -7.15, -8.24, -7.59, -3.43, -1.24, -1.2, -2.23, -2.23, -11.07, -11.07, -11.07, -11.07, -11.07, -11.44, -11.16, -11.72, -11.8, -11.8, -11.8, -11.8, -11.8, -11.8, -11.28, -11.28, -10.72, -10.36, -10.36, -10.4, -9.84, -8.86, -8.23, -8.24, -8.24, -8.53, -7.93, -6.06, -4.12, -1.61, -0.42, 0.0, 0.0, -0.45, -0.32, -0.6, -0.57, -0.57, -0.0, -0.0, 0.54, 1.2, 1.88, 1.88, 1.2, 1.16, -0.0, 1.0, 1.58, 1.58, 1.26, 1.79, 1.79, 1.79, 1.34, 1.79, 0.45, -0.0, -0.0, 0.0, 0.45, 0.0, 0.0, 0.0, 0.0, 0.0, 0.0, 0.0, 0.0, -0.45, -1.34, -0.89, 0.0, 0.0, -0.45, -3.58, -5.4, -5.37, -4.98, -3.32, -2.24, -1.79, -1.34, -1.34, -1.34, -1.79, -3.13, -4.43, -4.93, -4.75, -6.24, -5.38, -4.73, -1.61, -0.57, -1.84, -2.22, -2.22, -11.07, -11.07, -11.07, -11.07, -11.07, -11.07, -11.16, -11.72, -11.44, -11.52, -11.52, -11.52, -11.8, -11.8, -11.28, -11.28, -10.4, -10.69, -10.36, -10.4, -9.84, -9.22, -8.2, -7.57, -7.33, -7.61, -7.3, -6.34, -5.08, -3.49, -1.8, -1.0, -0.57, -0.6, -0.89, -0.89, -1.2, -0.8, -0.57, -0.0, -0.0, 0.65, 1.16, 1.16, 1.16, 0.59, -0.0, 0.61, 1.16, 1.4, 1.61, 1.26, 1.26, 1.79, 1.79, 1.79, 1.79, 0.32, -0.0, 0.0, 0.0, 0.0, -0.45, 0.0, 0.0, 0.0, 0.0, 0.0, -0.0, -0.45, -2.0, -2.21, -0.7, 0.0, 0.0, 0.0, -1.0, -2.21, -3.16, -2.53, -2.5, -2.17, -2.24, -2.24, -2.12, -2.24, -3.13, -3.98, -4.3, -3.72, -1.88, -2.23, -1.88, -0.65, -1.16, -2.0, -1.94, -1.94, -11.07, -11.07, -11.07, -10.8, -10.8, -10.8, -11.16, -11.44, -11.44, -11.52, -11.52, -11.52, -11.52, -11.52, -11.52, -11.28, -10.69, -10.69, -10.4, -10.4, -10.13, -9.84, -8.85, -8.2, -7.32, -6.97, -6.97, -6.01, -5.08, -4.45, -3.47, -2.2, -1.8, -1.16, -1.24, -1.6, -1.34, -1.2, -1.26, -0.57, -0.0, 0.54, 1.0, 1.0, 0.53, -0.0, -0.0, 0.59, 1.13, 1.61, 1.61, 2.21, 1.9, 2.4, 2.8, 2.8, 2.4, 1.79, 0.0, -0.89, -0.89, 0.0, 0.0, 0.0, 0.0, 0.0, 0.0, -0.0, -0.0, -0.45, -2.12, -2.53, -1.76, -0.72, 0.69, 2.12, 1.73, -0.57, -2.51, -2.51, -2.51, -3.14, -3.07, -2.12, -1.26, -1.7, -2.68, -3.58, -3.58, -2.68, -1.79, -0.65, -1.33, -1.8, -2.0, -2.0, -1.94, -1.94, -11.07, -11.07, -11.07, -10.8, -10.8, -10.8, -11.16, -11.16, -11.44, -11.8, -11.52, -11.87, -11.87, -11.87, -11.87, -11.28, -10.69, -10.69, -10.72, -10.43, -10.43, -9.84, -9.22, -8.58, -8.22, -7.6, -6.69, -5.71, -5.08, -4.78, -4.47, -4.75, -4.1, -3.47, -2.84, -2.86, -2.53, -2.15, -2.17, -1.79, -0.6, -0.0, -0.0, 0.54, -0.0, -0.0, -0.0, 0.51, 1.16, 1.61, 1.84, 2.23, 2.79, 2.84, 1.9, 1.86, 2.8, 1.79, 0.45, 0.0, -0.89, -0.45, 0.0, 0.0, 0.0, -0.45, 0.0, -0.0, -0.6, -1.34, -2.6, -3.07, -3.16, -1.94, 0.0, 2.8, 2.66, 0.0, -2.5, -3.14, -3.49, -3.78, -3.2, -1.2, -0.6, -1.7, -3.07, -2.63, -2.4, -2.15, -2.0, -1.86, -1.84, -2.48, -3.15, -3.12, -3.12, -3.12, -11.07, -11.07, -10.8, -10.8, -10.8, -10.8, -11.16, -11.16, -11.23, -11.8, -11.52, -11.87, -11.58, -11.58, -11.58, -11.33, -10.69, -10.99, -11.33, -11.03, -10.45, -9.84, -9.5, -9.22, -8.49, -7.59, -6.98, -6.35, -5.71, -5.08, -5.08, -4.75, -4.75, -4.47, -3.84, -3.22, -2.86, -3.14, -2.68, -2.17, -1.34, -0.0, -0.0, -0.0, -0.0, -0.57, -0.54, -0.0, 0.61, 1.16, 1.88, 2.53, 2.79, 3.14, 2.84, 1.58, 2.4, 1.79, 0.45, 0.0, -0.63, -0.6, 0.0, 0.0, 0.0, 0.0, 0.0, 0.0, -0.63, -1.79, -2.17, -3.07, -3.72, -3.72, -1.84, 0.0, 0.53, 0.63, -1.7, -3.45, -3.49, -4.29, -3.2, -0.0, 0.6, -0.95, -3.07, -2.53, -2.5, -2.4, -2.63, -2.17, -2.23, -3.16, -3.43, -3.79, -4.07, -4.07, -10.51, -10.51, -10.8, -10.8, -10.8, -10.8, -11.16, -11.16, -11.23, -11.44, -11.52, -11.87, -11.58, -11.58, -11.92, -11.58, -10.99, -10.99, -11.33, -11.36, -10.45, -10.13, -9.84, -9.5, -8.86, -8.59, -7.61, -6.97, -6.34, -5.71, -4.81, -4.47, -4.47, -4.47, -4.47, -4.12, -4.11, -3.48, -3.35, -2.68, -2.17, -0.89, -0.0, -0.0, -0.0, -0.0, -0.57, -0.0, -0.0, 1.4, 1.88, 2.21, 2.79, 2.79, 2.79, 2.79, 1.6, 1.79, 1.34, 0.0, -0.0, -0.0, -0.0, 0.0, 0.0, 0.45, 0.45, 0.0, -0.0, -1.26, -1.79, -1.84, -2.73, -4.73, -6.0, -3.72, -1.58, 0.0, -0.89, -2.5, -3.16, -3.73, -2.68, 0.63, 2.49, 1.26, -1.58, -2.68, -2.91, -3.13, -3.13, -2.17, -1.9, -2.79, -3.35, -3.43, -3.79, -3.79, -10.51, -10.51, -10.59, -10.59, -10.8, -10.8, -11.16, -10.88, -11.23, -11.23, -11.44, -11.52, -11.58, -11.92, -11.63, -11.63, -10.99, -10.99, -11.33, -11.03, -11.06, -10.45, -10.45, -9.84, -9.5, -8.59, -7.95, -6.97, -6.34, -5.72, -5.1, -4.46, -4.73, -5.1, -5.1, -5.08, -4.45, -4.11, -3.78, -3.35, -2.91, -1.79, -0.89, -0.6, -1.2, -0.57, -0.63, -0.6, -0.0, 1.24, 1.9, 2.15, 2.5, 2.5, 2.5, 2.68, 3.07, 3.2, 2.0, 1.24, -0.0, -0.0, -0.0, -0.0, -0.0, 1.34, 0.8, 0.0, -0.0, -0.95, -2.68, -2.53, -1.35, -2.82, -6.64, -7.32, -3.43, -2.4, -1.2, -1.86, -3.14, -3.79, -3.2, -0.0, 2.98, 3.07, 0.99, -0.8, -2.12, -2.6, -2.6, -1.79, -1.49, -1.88, -2.68, -3.14, -3.16, -3.16, -10.51, -10.51, -10.23, -10.59, -10.59, -10.8, -11.16, -10.88, -11.23, -11.23, -11.44, -11.44, -11.87, -11.92, -11.63, -11.63, -11.33, -10.99, -10.99, -11.03, -11.03, -10.45, -10.45, -10.45, -9.84, -9.21, -8.24, -6.97, -6.34, -5.72, -5.72, -5.09, -5.09, -5.1, -5.38, -5.38, -5.06, -4.74, -3.79, -3.43, -2.98, -2.49, -1.79, -0.89, -1.24, -1.24, -1.49, -1.26, -0.0, 1.26, 1.86, 2.4, 2.4, 2.5, 2.8, 2.91, 2.91, 3.2, 3.72, 1.88, -0.0, -0.0, -0.0, -0.0, 0.45, 1.34, 0.63, 0.0, -0.63, -1.58, -3.39, -3.82, -2.51, -0.71, -1.5, -5.41, -6.14, -3.15, -2.53, -2.5, -3.14, -3.35, -2.63, -0.0, 1.95, 2.84, 2.23, 1.16, -0.0, -0.0, -0.54, -1.26, -1.34, -0.6, -1.61, -2.15, -2.21, -2.21, -10.51, -10.51, -10.23, -10.59, -10.59, -10.8, -10.88, -10.88, -11.23, -11.23, -11.23, -11.44, -11.52, -11.58, -11.63, -11.63, -11.36, -11.33, -10.99, -10.43, -10.43, -10.45, -10.76, -10.76, -10.45, -9.82, -8.85, -7.59, -5.94, -5.72, -6.08, -6.35, -5.72, -5.46, -5.72, -5.71, -5.37, -5.06, -4.43, -4.07, -3.43, -3.07, -2.4, -1.2, -0.89, -1.86, -2.15, -1.26, -0.0, 1.2, 1.7, 2.12, 2.17, 2.17, 2.17, 2.4, 2.4, 2.91, 2.79, 2.51, -0.0, -0.0, -0.0, 0.0, 1.34, 2.24, 1.34, -0.45, -2.23, -2.15, -3.07, -3.58, -3.04, -1.41, 0.0, -1.5, -3.8, -3.15, -2.51, -2.51, -2.21, -2.12, -0.89, -0.0, 0.57, 1.2, 1.6, 1.58, 0.66, 0.59, -0.0, -0.0, -0.57, -0.45, -0.71, -1.0, -1.2, -1.2, -10.51, -10.51, -10.23, -10.59, -10.59, -10.59, -10.88, -10.88, -11.23, -11.23, -11.23, -11.23, -11.8, -11.52, -11.92, -11.63, -11.36, -11.36, -11.36, -10.43, -10.13, -10.43, -10.45, -10.45, -10.45, -10.12, -9.13, -8.45, -7.27, -6.88, -6.69, -6.98, -6.98, -6.35, -5.72, -5.72, -5.69, -5.65, -5.35, -4.71, -4.07, -3.43, -2.79, -2.23, -1.2, -1.34, -1.34, -0.89, 0.0, 0.89, 1.34, 1.79, 1.79, 1.79, 2.24, 2.24, 2.24, 2.17, 2.4, 1.9, 0.54, -0.0, 0.0, 0.89, 2.24, 2.63, 2.6, 0.45, -0.95, -1.24, -1.26, -1.34, -3.13, -3.43, -2.18, -1.52, -1.23, -1.9, -0.54, -0.51, 0.0, 0.0, 0.0, 0.0, -0.63, -0.45, -0.0, -0.0, 0.53, 0.61, 0.53, -0.0, -0.0, -0.32, 0.0, 0.0, -0.53, -0.53, -10.51, -10.51, -10.51, -10.23, -10.59, -10.59, -10.65, -10.88, -10.88, -11.23, -11.23, -11.23, -11.23, -11.52, -11.58, -11.63, -11.36, -11.03, -11.03, -10.13, -10.13, -10.13, -10.13, -10.45, -10.45, -10.12, -9.42, -9.02, -8.82, -7.9, -7.3, -6.69, -6.98, -6.98, -6.35, -5.72, -5.71, -5.65, -5.35, -5.01, -4.71, -4.07, -3.43, -2.53, -1.9, -1.26, -0.95, -0.63, 0.0, 0.63, 1.2, 1.79, 1.79, 1.79, 1.79, 1.79, 2.24, 2.24, 2.24, 1.79, 0.63, 0.0, 0.89, 1.34, 1.7, 2.4, 2.4, 1.49, -0.0, -0.45, -0.63, -0.89, -2.6, -5.09, -6.14, -2.99, -0.63, 0.61, 1.6, 1.94, 1.26, 0.0, 0.0, -0.59, -1.16, -1.61, -1.49, -0.89, -0.0, -0.0, 0.57, 0.57, -0.0, -0.63, -0.89, 0.0, 0.0, 0.0, -10.15, -10.15, -10.51, -10.23, -10.59, -10.3, -10.65, -10.65, -10.88, -11.23, -11.23, -11.23, -11.23, -11.52, -11.52, -10.99, -10.99, -10.72, -10.43, -10.13, -9.84, -9.21, -9.5, -9.84, -9.84, -9.8, -9.42, -9.02, -9.08, -7.93, -7.6, -6.98, -6.98, -6.98, -6.69, -6.08, -6.01, -5.69, -5.65, -5.35, -5.01, -4.71, -3.79, -2.86, -2.23, -1.88, -1.24, -0.57, 0.0, 0.0, 0.6, 1.6, 1.7, 1.7, 1.7, 1.79, 1.79, 2.24, 2.12, 1.7, 1.79, 0.89, 1.34, 1.79, 1.79, 1.26, 1.26, 1.26, -0.0, -0.6, -1.26, -1.34, -2.21, -5.21, -6.05, -3.06, 0.0, 3.91, 4.6, 3.06, 0.63, 0.0, -1.23, -1.27, -1.13, -1.6, -1.61, -1.2, -0.71, 0.0, 0.0, 0.0, 0.0, -0.45, -0.89, -0.95, 0.0, 0.0, -10.15, -10.15, -10.51, -10.23, -10.23, -10.3, -10.3, -10.65, -10.88, -11.23, -11.23, -11.23, -11.23, -11.28, -11.52, -11.52, -10.4, -10.4, -10.43, -10.13, -9.84, -9.5, -9.21, -9.5, -9.5, -9.19, -9.42, -9.02, -8.78, -8.22, -7.6, -6.98, -6.7, -6.98, -6.69, -6.35, -6.35, -5.72, -5.69, -5.06, -5.01, -4.43, -3.83, -3.49, -2.6, -2.23, -1.16, -1.2, -0.54, 0.0, 0.57, 1.26, 1.26, 1.49, 1.7, 1.7, 1.7, 2.12, 2.12, 1.7, 1.7, 1.7, 1.26, 0.95, 0.45, 0.0, 1.2, 1.7, 0.95, -0.0, -1.2, -1.79, -1.49, -1.45, -1.5, -1.52, 0.0, 2.28, 2.25, 0.67, 0.0, -0.59, -1.13, -1.0, -1.2, -0.61, -0.51, -0.51, -0.61, 0.0, 0.0, 0.0, 0.0, -0.63, -0.95, -0.95, -0.57, -0.57, -9.94, -9.94, -10.15, -10.23, -10.23, -10.3, -10.3, -10.65, -10.65, -10.6, -11.23, -11.23, -10.94, -11.28, -11.28, -11.52, -10.69, -10.4, -10.43, -10.45, -10.13, -10.13, -9.5, -9.21, -9.21, -9.48, -9.08, -8.78, -8.45, -8.19, -7.9, -7.32, -6.98, -6.98, -6.7, -6.35, -6.35, -5.72, -5.71, -5.08, -5.06, -4.74, -4.12, -2.15, -2.2, -2.2, -1.76, -1.13, -0.61, 0.0, 0.0, 0.71, 1.24, 1.58, 1.86, 1.86, 2.12, 2.12, 1.86, 1.86, 1.7, 1.79, 1.34, 0.63, 0.45, 0.89, 1.79, 2.6, 1.86, 0.63, -0.63, -0.95, 0.0, 0.73, 0.0, -1.47, -2.12, -3.06, -3.07, -2.71, -2.11, -0.61, -0.61, -0.6, 0.0, 0.0, 0.0, 0.0, 0.0, 0.0, 0.0, -0.61, -0.54, -0.57, -0.57, -0.99, -1.24, -0.99, -9.94, -9.94, -9.94, -10.01, -10.23, -10.3, -10.3, -10.65, -10.36, -10.36, -10.94, -10.94, -10.94, -10.94, -11.28, -11.28, -10.69, -10.72, -10.75, -10.76, -10.47, -10.13, -9.84, -9.22, -8.86, -8.87, -8.53, -8.78, -8.45, -8.19, -7.9, -7.32, -6.98, -6.71, -6.98, -6.69, -6.08, -5.72, -5.72, -5.1, -4.75, -4.75, -4.12, -2.15, -2.4, -1.84, -2.18, -1.94, -1.27, -0.61, 0.0, 0.54, 1.24, 1.24, 1.26, 1.26, 1.49, 2.12, 1.86, 1.86, 1.49, 1.7, 0.89, 0.45, 0.0, 1.34, 2.68, 2.17, 1.7, 1.34, -0.0, -0.0, -0.45, 0.0, 0.0, 0.0, -2.11, -5.94, -7.02, -6.21, -3.44, -1.19, 0.0, 0.61, 1.0, 0.59, 0.57, 0.63, 0.61, 0.0, 0.0, -0.57, -0.61, -1.2, -1.2, -1.61, -1.88, -1.24, -9.59, -9.59, -9.94, -9.66, -10.01, -10.3, -10.3, -10.65, -10.36, -10.36, -10.36, -10.69, -10.94, -10.94, -11.28, -11.28, -10.36, -10.36, -11.03, -10.45, -10.76, -10.47, -10.13, -9.84, -9.22, -9.21, -8.87, -8.5, -8.19, -7.86, -8.19, -7.6, -6.98, -6.71, -6.98, -6.35, -6.35, -5.72, -5.72, -5.1, -4.73, -4.47, -4.12, -3.49, -2.07, -2.32, -2.8, -2.84, -1.8, -0.61, 0.0, 0.0, 0.71, 0.57, 1.26, 1.26, 1.26, 1.86, 1.86, 1.86, 1.86, 1.7, 1.7, 0.89, 0.0, 1.34, 1.2, 1.2, 1.2, 1.34, 0.89, -0.63, -1.79, -2.15, 0.0, 2.11, 1.58, -1.3, -4.6, -5.46, -2.6, -0.57, 0.0, 1.11, 1.23, 1.23, 0.67, 0.67, 0.0, 0.0, 0.0, 0.0, -1.13, -1.2, -1.9, -1.88, -2.53, -1.88, -9.59, -9.59, -9.94, -9.66, -10.01, -9.72, -10.3, -10.3, -10.36, -10.36, -10.36, -10.69, -10.94, -10.94, -10.94, -11.28, -10.36, -10.36, -11.03, -10.45, -10.45, -10.45, -10.13, -10.13, -9.84, -9.5, -9.19, -8.53, -8.22, -7.9, -7.6, -7.6, -7.32, -6.71, -6.98, -6.34, -6.08, -6.06, -5.72, -5.09, -4.71, -4.46, -4.08, -3.85, -4.12, -2.88, -2.8, -2.44, -1.6, -0.53, 0.0, 0.0, 0.0, 0.57, 0.57, 1.26, 1.26, 1.86, 1.86, 1.86, 1.86, 1.7, 0.89, 2.24, 1.79, 2.24, 0.89, 1.79, 0.89, 0.89, 0.89, -0.89, -2.68, -2.8, -1.4, 0.81, 2.12, 0.64, -0.61, -1.8, -0.65, 0.53, 1.76, 1.98, 1.32, 0.62, 0.0, 0.0, 0.0, 0.0, 0.0, 0.0, -0.57, -1.4, -2.21, -2.5, -2.53, -2.53, -9.59, -9.59, -9.59, -9.94, -9.66, -9.72, -10.06, -10.3, -10.36, -10.36, -10.36, -10.69, -10.69, -10.94, -10.94, -10.94, -10.36, -10.36, -10.4, -10.75, -10.45, -10.13, -9.84, -9.84, -9.84, -9.84, -9.5, -8.87, -8.53, -8.22, -7.6, -7.32, -7.61, -6.97, -6.71, -6.34, -6.35, -6.35, -5.72, -5.72, -5.09, -4.45, -4.05, -3.83, -3.4, -3.4, -2.32, -1.73, -1.13, -0.61, 0.0, 0.0, 0.0, 0.0, 0.57, 0.57, 1.24, 1.58, 1.86, 1.86, 1.86, 2.12, 1.7, 1.79, 2.24, 2.24, 2.24, 1.79, 0.89, 0.89, 0.89, -0.63, -2.24, -3.13, -2.8, -2.07, -0.61, 0.0, 0.0, 1.27, 1.8, 2.66, 3.51, 2.01, 0.67, 0.0, -0.64, -0.64, -0.69, -0.74, -0.69, -0.64, -1.19, -1.8, -2.53, -2.53, -2.53, -2.53, -9.37, -9.37, -9.59, -9.94, -9.66, -10.01, -10.06, -10.06, -10.09, -10.36, -10.36, -10.36, -10.69, -10.69, -10.94, -10.94, -10.36, -9.77, -10.69, -10.75, -10.45, -10.13, -10.13, -9.84, -9.22, -9.21, -9.5, -8.87, -8.56, -8.24, -7.93, -7.61, -7.33, -6.97, -6.97, -6.71, -6.7, -6.35, -6.35, -5.72, -5.09, -5.09, -4.45, -4.05, -3.37, -2.92, -2.12, -1.67, -1.07, -0.57, -0.59, 0.0, 0.0, 0.0, 0.0, 0.54, 1.2, 1.2, 1.9, 1.9, 1.9, 1.86, 1.7, 1.79, 1.79, 2.24, 2.24, 2.68, 1.34, 1.34, 1.2, -0.0, -2.12, -2.68, -3.39, -3.72, -1.94, 0.0, 1.52, 5.52, 7.73, 7.67, 5.6, 2.82, 0.0, -0.67, -1.19, -1.3, -2.04, -1.98, -1.98, -1.98, -2.04, -2.79, -2.53, -2.68, -2.68, -2.68, -9.37, -9.37, -9.37, -9.37, -9.66, -10.01, -9.72, -10.06, -9.77, -10.09, -10.36, -10.36, -10.69, -10.69, -10.69, -10.94, -10.36, -9.77, -10.69, -10.43, -10.75, -10.13, -10.13, -9.49, -9.22, -9.21, -9.21, -8.87, -8.56, -8.24, -8.24, -7.61, -7.61, -6.96, -6.96, -6.97, -6.98, -6.35, -6.08, -5.72, -5.72, -5.09, -4.71, -4.05, -3.6, -2.92, -2.26, -1.76, -1.67, -1.16, -1.08, -0.57, -0.59, 0.0, 0.0, 0.61, 1.16, 1.16, 1.2, 1.2, 1.61, 1.58, 1.86, 1.26, 1.26, 1.26, 1.58, 1.2, 1.79, 1.49, 1.24, -0.0, -1.2, -2.24, -2.4, -1.9, -1.16, 0.0, 3.06, 6.87, 10.04, 9.23, 6.2, 3.39, 0.64, 0.0, -1.27, -2.44, -3.12, -2.66, -2.99, -2.66, -2.66, -3.07, -2.5, -2.24, -2.24, -2.24, -9.02, -9.02, -9.37, -9.37, -9.66, -9.66, -9.72, -10.06, -9.77, -10.09, -10.09, -10.36, -10.69, -10.69, -10.69, -10.94, -10.36, -9.77, -10.36, -10.4, -10.43, -9.84, -10.13, -9.84, -9.22, -9.21, -8.87, -8.58, -8.56, -8.24, -7.95, -7.61, -7.61, -6.96, -6.96, -6.7, -6.71, -6.34, -6.35, -5.72, -5.72, -5.09, -4.45, -4.46, -4.05, -3.4, -2.75, -2.29, -2.14, -1.67, -1.7, -1.19, -0.55, -0.57, 0.0, 0.59, 0.59, 1.16, 1.16, 1.16, 1.2, 1.2, 1.24, 1.58, 1.26, 1.26, 1.26, 0.63, 1.34, 1.58, 0.65, -0.0, -0.0, -0.8, -0.63, 0.0, 0.0, 1.13, 3.64, 6.01, 8.27, 8.56, 6.2, 4.15, 2.66, 0.57, -0.59, -2.48, -3.79, -4.19, -2.68, -2.51, -2.48, -2.53, -2.24, -1.2, -1.2, -1.2, -9.02, -9.02, -9.37, -9.37, -9.08, -9.66, -9.72, -9.72, -9.77, -9.77, -10.09, -10.09, -10.07, -10.4, -10.69, -10.36, -9.77, -9.77, -10.36, -10.4, -10.43, -10.13, -9.84, -10.13, -9.49, -9.5, -9.21, -8.87, -8.58, -8.24, -7.95, -7.61, -7.61, -6.96, -6.96, -6.31, -6.33, -6.08, -6.08, -5.72, -5.72, -5.34, -5.09, -4.71, -4.05, -3.4, -3.4, -2.96, -2.77, -2.32, -1.67, -1.7, -1.19, -0.55, 0.0, 0.0, 0.59, 0.59, 0.59, 0.61, 1.16, 1.2, 1.2, 1.24, 1.58, 1.26, 1.26, 0.0, 0.0, -0.0, 0.54, -0.0, -0.0, -0.0, -0.0, 0.8, 1.34, 2.5, 3.78, 5.05, 6.08, 6.71, 6.31, 6.21, 5.46, 2.54, 0.63, -1.13, -2.79, -1.9, -1.24, -1.2, -1.88, -1.9, -1.79, -0.99, -0.99, -0.99, -9.02, -9.02, -9.02, -9.37, -9.08, -9.42, -9.72, -9.72, -10.06, -9.77, -10.09, -10.09, -9.8, -10.4, -10.69, -9.77, -9.77, -9.77, -10.09, -10.4, -10.43, -10.13, -9.84, -10.13, -10.13, -9.5, -9.5, -8.59, -8.58, -7.96, -8.24, -7.61, -7.61, -6.96, -6.7, -6.31, -6.33, -5.69, -5.95, -5.7, -5.72, -5.08, -5.09, -4.45, -4.05, -4.05, -3.4, -2.96, -2.77, -2.32, -2.32, -1.84, -1.16, -1.19, 0.0, 0.0, 0.0, 0.59, 0.59, 0.59, 0.61, 0.61, 0.65, 1.24, 1.86, 1.58, 1.9, 1.9, 0.0, 0.0, 0.0, 0.57, 0.54, 0.54, 0.71, 1.26, 1.79, 3.07, 4.11, 4.93, 4.66, 5.94, 7.73, 8.49, 6.17, 3.47, 1.94, 0.53, -0.63, -0.4, 0.0, 0.0, 0.0, -1.24, -1.7, -1.2, -1.2, -1.2, -9.02, -9.02, -9.02, -9.37, -9.08, -9.42, -9.42, -9.72, -9.72, -9.77, -9.77, -10.09, -9.8, -10.4, -10.09, -9.77, -9.48, -9.77, -9.8, -10.12, -10.12, -10.13, -9.84, -9.84, -9.84, -9.5, -9.5, -8.87, -8.87, -8.24, -7.96, -7.6, -7.33, -6.96, -6.7, -6.31, -5.92, -5.69, -5.69, -5.7, -5.46, -5.32, -5.08, -4.69, -4.45, -4.05, -3.6, -3.4, -2.96, -2.29, -2.32, -1.67, -1.7, -1.16, -0.55, 0.0, 0.0, 0.0, 0.0, 0.59, 0.51, 0.61, 0.53, 1.0, 1.58, 0.63, 1.2, 1.26, 1.26, 0.63, 0.0, 0.63, 0.57, 0.57, 0.6, 1.6, 2.24, 3.13, 3.98, 4.3, 4.27, 4.73, 7.32, 7.59, 5.52, 2.72, 0.51, -0.45, -0.0, 0.0, 0.0, 0.0, 0.0, -1.2, -1.79, -1.7, -1.7, -1.7, -9.02, -8.78, -8.78, -9.02, -9.08, -9.08, -9.42, -9.46, -9.72, -9.77, -9.77, -10.09, -9.8, -10.09, -9.77, -9.48, -9.48, -9.77, -9.8, -10.12, -10.12, -10.13, -10.13, -9.84, -9.84, -9.84, -9.5, -9.21, -8.87, -8.58, -8.24, -7.6, -7.6, -6.96, -6.7, -6.31, -5.92, -5.69, -5.26, -5.04, -5.29, -5.06, -5.08, -4.44, -4.69, -4.03, -3.81, -3.4, -2.75, -2.96, -2.29, -1.8, -1.67, -1.07, -0.61, 0.0, 0.0, 0.0, 0.0, 0.0, 0.0, 0.0, 0.53, 0.54, 1.26, 1.34, 0.89, 1.2, 1.2, 0.89, 0.0, 0.45, -0.0, -0.0, 0.6, 0.95, 1.7, 2.68, 3.13, 3.53, 4.0, 3.72, 4.09, 4.29, 3.61, 0.64, 0.0, -1.0, -1.34, -0.63, -0.63, 0.0, 0.0, -1.2, -1.86, -1.9, -1.9, -1.9, -8.78, -8.45, -8.78, -8.78, -9.08, -9.08, -9.42, -9.13, -9.46, -9.77, -9.77, -10.09, -10.09, -9.48, -9.17, -9.48, -9.48, -9.8, -10.12, -10.12, -10.12, -9.82, -10.13, -9.84, -9.84, -10.13, -9.5, -9.21, -8.87, -8.59, -7.96, -7.96, -7.33, -6.94, -6.56, -6.31, -5.67, -5.69, -5.26, -5.04, -4.63, -4.63, -4.63, -4.66, -4.44, -4.0, -4.03, -3.37, -2.92, -2.75, -2.29, -2.14, -1.8, -1.16, -0.54, -0.55, 0.0, 0.0, 0.0, 0.0, 0.0, 0.0, 0.0, 0.0, 0.6, 0.45, 0.45, 0.45, 0.45, 0.0, 0.0, 0.0, 0.45, 0.45, 0.57, 0.6, 1.34, 2.24, 2.68, 2.68, 3.32, 3.6, 3.14, 1.94, 0.67, 0.0, -0.59, -1.76, -1.86, -1.79, -1.79, -0.6, -0.45, -0.99, -1.61, -1.61, -1.61, -1.61, -8.45, -8.45, -8.45, -8.78, -8.5, -8.82, -9.08, -9.13, -9.46, -9.17, -9.77, -10.09, -9.48, -9.17, -9.17, -9.48, -9.48, -9.8, -10.12, -10.12, -10.12, -9.82, -10.13, -9.84, -9.84, -9.82, -9.5, -9.5, -9.19, -8.87, -8.23, -7.96, -7.59, -7.33, -6.94, -6.29, -5.89, -5.67, -5.26, -4.6, -4.6, -4.63, -4.63, -3.97, -4.2, -4.0, -3.8, -3.56, -2.89, -2.73, -2.26, -2.29, -1.65, -1.05, -1.16, -0.61, -0.55, 0.0, 0.0, 0.0, 0.0, 0.0, 0.0, 0.0, 0.0, 0.0, 0.0, 0.0, 0.0, 0.0, -0.0, 0.0, 0.0, 0.0, 0.63, 0.63, 0.89, 1.79, 2.24, 2.24, 2.17, 2.68, 2.51, 1.5, 0.65, 0.0, -0.61, -1.84, -2.0, -1.79, -2.24, -1.79, -1.34, -1.86, -1.9, -1.88, -1.88, -1.88, -8.73, -8.73, -8.45, -8.78, -8.5, -8.82, -8.82, -9.13, -9.46, -9.17, -9.17, -9.17, -9.17, -9.17, -9.17, -9.48, -9.19, -9.8, -9.8, -9.8, -9.8, -9.82, -9.82, -9.84, -9.84, -9.5, -9.5, -9.5, -9.19, -8.87, -8.87, -7.96, -7.96, -7.59, -6.94, -6.7, -6.29, -5.89, -5.23, -5.02, -4.6, -4.6, -3.94, -4.16, -3.97, -3.78, -3.52, -3.35, -2.86, -2.89, -2.73, -2.26, -1.65, -1.67, -1.05, -1.16, -0.54, -0.55, 0.0, 0.0, 0.0, 0.0, 0.0, 0.0, 0.0, 0.0, 0.0, 0.0, 0.0, 0.0, -0.45, -0.45, -0.45, 0.0, 0.0, 0.45, 0.89, 1.34, 1.7, 1.79, 1.79, 1.86, 1.94, 2.35, 2.01, 1.36, 0.0, -1.7, -2.17, -1.7, -2.17, -2.68, -2.24, -2.17, -2.4, -2.15, -2.15, -2.15, -8.73, -8.73, -8.45, -8.45, -8.78, -8.5, -8.82, -9.13, -9.13, -9.13, -8.85, -8.56, -8.87, -8.87, -9.17, -9.48, -9.19, -9.8, -9.8, -9.5, -9.5, -9.21, -9.82, -9.82, -9.21, -9.5, -9.21, -9.5, -9.19, -8.87, -8.58, -8.58, -8.24, -7.59, -7.33, -6.94, -6.29, -6.31, -5.89, -5.23, -5.02, -4.57, -4.6, -3.94, -3.94, -3.49, -3.49, -3.52, -3.35, -2.86, -2.89, -2.73, -2.26, -1.76, -1.67, -1.14, -1.16, -0.54, -0.61, -0.55, 0.0, 0.0, 0.0, -0.61, -0.54, 0.0, 0.0, 0.0, 0.0, 0.0, -0.45, 0.0, -0.45, -0.45, -0.0, -0.0, -0.0, 0.0, 0.0, 0.45, 0.45, 0.63, 1.8, 2.88, 2.8, 1.8, 0.89, -1.24, -2.15, -2.15, -2.49, -2.63, -2.68, -2.68, -2.68, -2.6, -2.6, -2.6, -8.73, -8.73, -8.45, -8.45, -8.78, -8.5, -8.82, -8.82, -8.85, -8.85, -8.85, -8.56, -8.56, -8.87, -9.17, -9.48, -9.5, -9.8, -9.5, -9.5, -9.5, -9.21, -9.21, -9.5, -9.5, -9.5, -9.21, -9.5, -9.19, -8.87, -8.58, -8.58, -8.24, -7.96, -7.6, -7.22, -6.96, -6.56, -6.31, -5.89, -5.67, -5.02, -4.8, -4.6, -4.12, -3.94, -3.49, -3.49, -3.32, -3.01, -2.86, -2.89, -2.4, -2.26, -1.76, -1.8, -1.14, -1.16, -0.54, -0.61, -0.55, -0.57, -0.57, -0.59, -0.53, -0.8, 0.0, 0.0, 0.0, -0.45, -0.45, 0.0, -0.45, -0.45, 0.0, 0.0, -0.0, -0.63, -0.89, -0.45, 0.0, 0.0, 0.65, 1.8, 1.76, 1.16, 0.63, -0.0, -1.24, -2.21, -3.14, -3.07, -2.24, -2.6, -2.68, -2.68, -2.68, -2.68, -8.38, -8.38, -8.45, -8.45, -8.78, -8.5, -8.5, -8.5, -8.53, -8.53, -8.85, -8.56, -8.56, -8.87, -9.17, -9.19, -9.5, -9.5, -9.5, -9.5, -9.5, -9.21, -9.21, -9.5, -9.5, -9.21, -9.21, -9.19, -8.87, -8.58, -8.58, -8.58, -7.96, -7.96, -7.6, -7.33, -6.96, -6.7, -6.31, -6.31, -5.67, -5.92, -5.26, -4.6, -4.6, -4.12, -3.94, -4.16, -3.49, -3.32, -3.52, -2.89, -2.73, -2.26, -2.26, -2.29, -1.8, -1.67, -1.16, -1.07, -0.61, -0.55, -0.57, -1.13, -1.16, -1.24, -0.95, -0.89, -0.89, -0.45, -0.45, -0.45, -0.45, -0.0, -0.0, 0.0, 0.0, -0.63, -1.34, -1.34, -1.34, -1.2, -0.57, 0.0, 0.57, 0.66, 0.0, -0.0, -0.0, -1.88, -3.16, -3.35, -3.13, -3.32, -3.32, -3.13, -3.13, -3.13, -8.15, -8.15, -7.86, -8.45, -8.45, -8.5, -8.22, -8.22, -7.93, -8.53, -8.53, -8.56, -8.56, -8.87, -9.17, -9.19, -9.19, -9.19, -9.19, -8.87, -8.87, -8.59, -8.87, -9.21, -8.87, -8.87, -8.87, -8.87, -8.87, -8.58, -8.58, -7.96, -7.96, -7.6, -7.33, -7.33, -6.96, -6.7, -6.31, -6.33, -5.92, -5.69, -5.69, -5.26, -5.04, -4.6, -4.4, -3.94, -3.97, -3.97, -3.32, -2.86, -2.89, -2.92, -2.75, -2.29, -2.14, -1.8, -1.67, -1.16, -1.07, -1.08, -1.23, -1.11, -1.33, -1.61, -1.86, -1.2, -1.34, -0.89, -0.89, -0.89, -0.0, -0.0, -0.63, -0.89, -0.89, -1.34, -1.79, -1.7, -1.79, -1.79, -1.86, -1.16, 0.0, 0.0, 0.0, -0.45, -0.0, -1.2, -2.79, -3.72, -4.47, -4.41, -3.82, -3.51, -3.51, -3.51, -8.15, -8.15, -7.86, -8.19, -8.19, -8.19, -7.9, -8.22, -8.22, -8.24, -8.53, -8.56, -8.56, -8.87, -9.17, -9.48, -9.19, -8.87, -8.87, -8.87, -8.59, -8.59, -8.59, -8.59, -8.87, -8.87, -8.59, -8.87, -8.87, -8.58, -8.58, -7.96, -7.96, -7.6, -7.33, -7.33, -6.7, -6.97, -6.58, -6.33, -5.92, -5.69, -5.69, -5.04, -5.04, -4.6, -4.63, -4.63, -4.16, -3.97, -3.97, -3.35, -3.37, -2.89, -2.92, -2.75, -2.29, -2.32, -2.16, -1.84, -1.7, -1.19, -1.08, -1.23, -1.8, -1.88, -1.9, -1.86, -1.7, -2.24, -1.79, -0.89, -0.0, 0.0, -0.45, -1.2, -1.6, -1.2, -0.95, -2.12, -2.12, -2.24, -2.4, -1.84, -0.57, 0.0, 0.0, -0.99, -0.89, -1.26, -2.4, -3.39, -4.47, -4.43, -3.97, -3.53, -3.53, -3.53, -8.15, -8.15, -8.15, -7.86, -7.86, -7.86, -7.9, -7.9, -8.22, -8.24, -8.53, -8.56, -8.56, -8.87, -9.17, -8.87, -8.58, -8.58, -8.87, -8.87, -8.59, -8.59, -8.59, -8.59, -8.59, -8.59, -8.59, -8.59, -8.58, -8.58, -8.24, -7.96, -8.24, -7.89, -7.61, -7.61, -6.97, -6.97, -6.58, -6.33, -6.33, -5.69, -5.69, -5.04, -5.29, -5.06, -4.63, -4.63, -4.42, -3.97, -3.97, -4.0, -3.56, -3.37, -3.4, -2.75, -2.77, -2.77, -2.32, -2.16, -1.7, -1.7, -1.73, -1.76, -1.8, -2.23, -2.15, -2.23, -1.86, -2.12, -1.6, 0.0, 0.0, 0.0, 0.0, -0.95, -0.99, -0.6, -0.6, -1.7, -2.17, -2.68, -3.32, -2.79, -1.27, -0.63, 0.0, -0.63, -1.16, -1.6, -1.79, -2.68, -3.13, -3.58, -3.53, -3.39, -3.39, -3.39, -7.81, -7.81, -7.81, -7.81, -7.86, -7.86, -7.9, -7.9, -8.22, -7.93, -8.24, -8.53, -8.56, -8.56, -8.87, -8.87, -8.87, -8.58, -8.58, -8.24, -8.23, -8.23, -8.23, -8.23, -8.59, -8.59, -8.59, -8.59, -8.58, -8.24, -8.24, -7.96, -8.24, -7.61, -7.61, -7.61, -6.97, -6.97, -6.33, -6.33, -6.08, -5.69, -5.69, -5.29, -5.29, -5.06, -4.63, -4.63, -4.42, -4.66, -4.2, -4.0, -4.03, -3.37, -3.4, -3.4, -2.96, -2.77, -2.8, -2.32, -2.36, -2.18, -2.4, -2.2, -2.22, -2.23, -2.5, -2.15, -2.4, -2.12, -1.7, -0.95, 0.0, 0.0, 0.0, -0.95, -0.99, -0.6, -0.6, -1.7, -2.68, -3.58, -3.82, -3.35, -2.23, -1.23, -0.63, 0.0, 0.0, -0.61, -1.86, -1.79, -2.24, -2.17, -2.4, -2.5, -2.5, -2.5, -7.81, -7.81, -7.81, -7.81, -7.86, -7.86, -7.9, -7.9, -8.22, -7.93, -8.24, -8.53, -8.56, -8.56, -8.87, -8.87, -8.87, -8.58, -8.58, -8.24, -8.23, -8.23, -8.23, -8.23, -8.59, -8.59, -8.59, -8.59, -8.58, -8.24, -8.24, -7.96, -8.24, -7.61, -7.61, -7.61, -6.97, -6.97, -6.33, -6.33, -6.08, -5.69, -5.69, -5.29, -5.29, -5.06, -4.63, -4.63, -4.42, -4.66, -4.2, -4.0, -4.03, -3.37, -3.4, -3.4, -2.96, -2.77, -2.8, -2.32, -2.36, -2.18, -2.4, -2.2, -2.22, -2.23, -2.5, -2.15, -2.4, -2.12, -1.7, -0.95, 0.0, 0.0, 0.0, -0.95, -0.57, -0.6, -0.6, -1.7, -2.68, -3.53, -3.87, -3.72, -3.16, -2.0, -1.11, -0.57, 0.0, 0.0, 0.0, -0.61, -0.53, -0.53, -0.61, -1.13, -1.13, -1.13]}]